     2.10           OBSERVATION DATA    G (GPS)             RINEX VERSION / TYPE
teqc 2002Mar15 Lou Estey 20020315 22:22:31UTC               PGM / RUN BY / DATE
Solaris 2.7|Ultra 2|cc SC5.0|=+-|*Sparc                     COMMENT
BIT 2 OF LLI FLAGS DATA COLLECTED UNDER A/S CONDITION       COMMENT
ID?                                                         MARKER NAME
-Unknown- -Unknown-                                         OBSERVER / AGENCY
-Unknown- LEICA -Unknown-                                   REC # / TYPE / VERS
-Unknown- -Unknown-                                         ANT # / TYPE
 -2519167.0693 -4668827.2909  3528813.3353                  APPROX POSITION XYZ
        0.0000        0.0000        0.0000                  ANTENNA: DELTA H/E/N
     1     1                                                WAVELENGTH FACT L1/2
     4    L1    L2    C1    P2                              # / TYPES OF OBSERV
SNR is mapped to RINEX snr flag value [2-9]                 COMMENT
L1 & L2: 25-27 dBHz = 2, ..., 49-55 dBHz = 9                COMMENT
  1998     1    14    22    45    0.0000000     GPS         TIME OF FIRST OBS
                                                            END OF HEADER
 98  1 14 22 45  0.0000000  0  6G 7G 2G26G15G19G27
 110307364.86649  85953796.35548  20990781.2994   20990774.6524
 111307780.28049  86733334.45548  21181159.3034   21181153.0534
 122989929.44847  95836306.37347  23404206.3434   23404201.6434
 124906440.84646  97329673.09246  23768901.1634   23768898.0564
 117180176.65748  91309209.51647  22298642.5084   22298636.7514
 106115935.11448  82687742.18848  20193184.4464   20193178.2554
 98  1 14 22 45 30.0000000  0  6G 7G 2G26G15G19G27
 110245715.49948  85905757.94348  20979049.7444   20979043.2124
 111303732.37149  86730180.26348  21180389.0714   21180382.7214
 122928998.03947  95788827.38247  23392611.5064   23392606.7584
 124872706.36047  97303386.48646  23762481.6804   23762478.4764
 117254236.61348  91366918.56347  22312735.5904   22312729.9204
 106127089.38248  82696433.80748  20195307.0454   20195300.7914
 98  1 14 22 46  0.0000000  0  6G 7G 2G26G15G19G27
 110184799.72848  85858291.12748  20967457.7514   20967451.3314
 111300107.42749  86727355.65048  21179699.3274   21179692.8154
 122868782.03947  95741905.90247  23381152.7344   23381147.9924
 124839726.16647  97277687.72046  23756205.7574   23756202.4224
 117328873.28848  91425076.96847  22326938.4774   22326932.8274
 106138991.83449  82705708.45448  20197572.0184   20197565.7244
 98  1 14 22 46 30.0000000  0  6G 7G 2G26G15G19G27
 110124339.71348  85811179.44048  20955952.4384   20955946.1454
 111296625.53649  86724642.51848  21179036.7214   21179030.1804
 122808984.63547  95695310.49547  23369773.5834   23369768.8574
 124807207.44247  97252348.52346  23750017.6504   23750014.1794
 117403808.03748  91483467.66447  22341198.0854   22341192.4924
 106151342.11249  82715332.04048  20199922.2344   20199915.9024
 98  1 14 22 47  0.0000000  0  6G 7G 2G26G15G19G27
 110064343.76049  85764429.35948  20944535.4814   20944529.2374
 111293304.91549  86722055.05248  21178404.8044   21178398.2634
 122749625.48747  95649056.64847  23358477.8544   23358473.1504
 124775158.17547  97227375.11146  23743918.8774   23743915.2644
 117479051.76048  91542099.09247  22355516.4424   22355510.9164
 106164139.18849  82725303.77148  20202357.4954   20202351.0704
 98  1 14 22 47 30.0000000  0  6G 7G 2G26G15G19G27
 110004643.51549  85717909.72748  20933174.8664   20933168.5764
 111289995.48049  86719476.28548  21177775.0044   21177768.5024
 122690534.63547  95603011.88747  23347233.0604   23347228.4884
 124743418.86247  97202643.22346  23737879.0634   23737875.3164
 117554442.61248  91600845.18047  22369862.8094   22369857.3884
 106177212.70448  82735490.92048  20204845.3274   20204838.8614
 98  1 14 22 48  0.0000000  0  6G 7G 2G26G15G19G27
 109945539.27149  85671854.46848  20921927.7024   20921921.3664
 111287022.63349  86717159.81648  21177209.2554   21177202.8124
 122632013.94346  95557411.38647  23336096.9074   23336092.3644
 124712303.84847  97178397.80646  23731958.0494   23731954.2164
 117630293.81948  91659949.94947  22384296.7424   22384291.4374
 106190885.47848  82746145.01848  20207447.1454   20207440.6704
 98  1 14 22 48 30.0000000  0  6G 7G 2G26G15G19G27
 109886870.64449  85626138.67148  20910763.4344   20910757.0714
 111284236.36149  86714988.73348  21176679.0214   21176672.6424
 122573919.76846  95512143.24947  23325041.8704   23325037.3774
 124681659.09547  97154518.76446  23726126.5944   23726122.6034
 117706443.22548  91719287.10947  22398787.4454   22398782.2234
 106205004.10648  82757146.55148  20210133.7244   20210127.3264
 98  1 14 22 49  0.0000000  0  6G 7G 2G26G15G19G27
 109828625.87149  85580753.17248  20899679.8224   20899673.4384
 111281620.87249  86712950.72048  21176181.3104   21176174.9694
 122516250.25047  95467205.99647  23314067.7254   23314063.1954
 124651487.80947  97131008.67846  23720385.2964   23720381.0474
 117782857.48148  91778830.61947  22413328.6184   22413323.4174
 106219567.26149  82768494.48148  20212904.9644   20212898.5764
 98  1 14 22 49 30.0000000  0  6G 7G 2G26G15G19G27
 109770805.41449  85535698.27848  20888676.9314   20888670.5424
 111279169.50149  86711040.57348  21175714.8654   21175708.4764
 122458997.29847  95422593.36247  23303172.8274   23303168.3044
 124621792.80047  97107869.73346  23714734.5364   23714730.0364
 117859520.84448  91838568.27547  22427917.2424   22427912.0244
 106234574.71248  82780188.61448  20215760.8114   20215754.3574
 98  1 14 22 50  0.0000000  0  6G 7G 2G26G15G19G27
 109713566.29949  85491096.39948  20877784.6904   20877778.2774
 111277014.57849  86709361.42548  21175304.7974   21175298.3814
 122402319.65447  95378428.99247  23292387.2754   23292382.9144
 124592727.38647  97085221.36846  23709203.5954   23709198.9374
 117936581.41748  91898615.44347  22442581.3464   22442576.2024
 106250180.41348  82792348.88348  20218730.4774   20218723.9884
 98  1 14 22 50 30.0000000  0  6G 7G 2G26G15G19G27
 109656602.97049  85446709.42548  20866944.9404   20866938.4634
 111274839.33049  86707666.44848  21174890.8734   21174884.4044
 122345923.39646  95334483.88247  23281655.3654   23281651.0384
 124563985.91147  97062825.39246  23703734.3694   23703729.5044
 118013732.63448  91958733.24347  22457262.7464   22457257.6134
 106266074.02348  82804733.51948  20221754.9664   20221748.3974
 98  1 14 22 51  0.0000000  0  6G 7G 2G26G15G19G27
 109600064.87849  85402653.77748  20856186.0754   20856179.5634
 111272786.51549  86706066.86448  21174500.2594   21174493.7084
 122289951.78346  95290869.70647  23271004.2734   23271000.0114
 124535719.29847  97040799.50946  23698355.5544   23698350.4824
 118091138.44248  92019049.39747  22471992.6774   22471987.4804
 106282412.58048  82817464.87248  20224864.1624   20224857.5234
 98  1 14 22 51 30.0000000  0  6G 7G 2G26G15G19G27
 109544117.25249  85359058.23748  20845539.5844   20845533.0414
 111271024.20549  86704693.65648  21174164.8794   21174158.3114
 122234569.27446  95247714.51547  23260465.2974   23260461.0114
 124508087.33547  97019268.12946  23693097.4624   23693092.2084
 118168994.64848  92079716.52647  22486808.2564   22486803.0894
 106299364.98948  82830674.55648  20228090.1344   20228083.4784
 98  1 14 22 52  0.0000000  0  6G 7G 2G26G15G19G27
 109488762.46149  85315924.65248  20835005.9544   20834999.3344
 111269556.04449  86703549.63248  21173885.5454   21173878.8984
 122179784.38547  95205024.99647  23250039.9724   23250035.7194
 124481093.61947  96998234.11946  23687960.8124   23687955.3964
 118247323.72448  92140752.12347  22501713.8314   22501708.6964
 106316934.12048  82844364.78848  20231433.4524   20231426.8034
 98  1 14 22 52 30.0000000  0  6G 7G 2G26G15G19G27
 109433547.80049  85272900.26748  20824498.9894   20824492.2944
 111267939.19849  86702289.76448  21173577.9054   21173571.2414
 122125162.24547  95162462.33147  23239645.7244   23239641.4204
 124454288.17347  96977346.76546  23682859.9884   23682854.4144
 118325679.67348  92201808.64047  22516624.5444   22516619.4134
 106334665.40948  82858181.36848  20234807.5564   20234800.9994
 98  1 14 22 53  0.0000000  0  6G 7G 2G26G15G19G27
 109378781.09949  85230224.93748  20814077.3034   20814070.4664
 111266473.53449  86701147.69949  21173299.0464   21173292.3834
 122071006.06247  95120262.74747  23229340.0624   23229335.8514
 124427975.84647  96956843.72446  23677852.9784   23677847.2864
 118404359.88648  92263117.86747  22531596.9984   22531591.8134
 106352851.28748  82872352.19948  20238268.1904   20238261.7064
 98  1 14 22 53 30.0000000  0  6G 7G 2G26G15G19G27
 109324773.60249  85188141.18048  20803800.0064   20803793.0914
 111265463.00749  86700360.29949  21173106.7964   21173100.1374
 122017626.41347  95078668.25147  23219182.2294   23219178.0354
 124402462.90947  96936963.57646  23672998.0284   23672992.2904
 118483655.17148  92324906.34447  22546686.4844   22546681.2364
 106371778.04848  82887100.33048  20241869.8454   20241863.3964
 98  1 14 22 54  0.0000000  0  6G 7G 2G26G15G19G27
 109270756.14349  85146049.66848  20793520.7664   20793513.7924
 111264138.06249  86699327.86049  21172854.7034   21172848.0364
 121964273.64246  95037094.71147  23209029.4984   23209025.3364
 124376985.23247  96917110.94046  23668149.8114   23668143.9974
 118562772.42848  92386556.10747  22561742.0694   22561736.7994
 106390678.89648  82901828.25948  20245466.5574   20245460.1224
 98  1 14 22 54 30.0000000  0  6G 7G 2G26G15G19G27
 109217348.99249  85104433.73748  20783357.6284   20783350.6344
 111263115.82349  86698531.33249  21172660.1784   21172653.5614
 121911569.98346  94996026.94847  23199000.2904   23198996.1234
 124352164.20847  96897769.94246  23663426.5154   23663420.6974
 118642303.08848  92448528.02447  22576876.3214   22576871.0204
 106410173.84248  82917019.14648  20249176.3104   20249169.9084
 98  1 14 22 55  0.0000000  0  6G 7G 2G26G15G19G27
 109164406.61749  85063179.95848  20773282.9224   20773275.9184
 111262249.81949  86697856.51349  21172495.3954   21172488.8094
 121859347.99347  94955334.55047  23189062.8594   23189058.5944
 124327854.98547  96878827.76746  23658800.6124   23658794.8254
 118722084.44648  92510695.28647  22592058.2924   22592052.9464
 106430122.30349  82932563.42548  20252972.3764   20252965.9794
 98  1 14 22 55 30.0000000  0  6G 7G 2G26G15G19G27
 109111770.68249  85022164.97048  20763266.5544   20763259.5324
 111261384.66649  86697182.36949  21172330.7384   21172324.2224
 121807447.49347  94914892.60447  23179186.5584   23179182.2424
 124303897.95347  96860159.99946  23654241.6814   23654235.9804
 118801955.60748  92572932.50747  22607257.3284   22607251.9424
 106450378.08549  82948347.15448  20256826.9824   20256820.5274
 98  1 14 22 56  0.0000000  0  6G 7G 2G26G15G19G27
 109059746.17349  84981626.41048  20753366.5474   20753359.5254
 111260842.43849  86696759.82949  21172227.5074   21172221.0644
 121756180.55547  94874944.36047  23169430.8074   23169426.4424
 124280606.75547  96842011.08146  23649809.4184   23649803.7994
 118882233.85848  92635486.90847  22622533.7724   22622528.4264
 106471263.51549  82964621.52848  20260801.3594   20260794.9104
 98  1 14 22 56 30.0000000  0  6G 7G 2G26G15G19G27
 109008180.63049  84941445.49248  20743553.9274   20743546.9044
 111260465.58449  86696466.18749  21172155.7714   21172149.3694
 121705380.30347  94835359.82647  23159763.7584   23159759.4194
 124257824.56346  96824258.80346  23645474.0874   23645468.4654
 118962781.54648  92698251.27947  22637861.5234   22637856.1884
 106492618.74749  82981261.97048  20264865.1844   20264858.7074
 98  1 14 22 57  0.0000000  0  6G 7G 2G26G15G19G27
 108957077.58949  84901624.97948  20733829.4014   20733822.3134
 111260246.97649  86696295.84149  21172114.1834   21172107.7694
 121655054.15946  94796144.61646  23150186.9044   23150182.6034
 124235555.37547  96806906.24846  23641236.3544   23641230.7484
 119043627.60647  92761248.16747  22653246.0404   22653240.7174
 106514447.81549  82998271.64448  20269019.1544   20269012.6744
 98  1 14 22 57 30.0000000  0  6G 7G 2G26G15G19G27
 108906280.75649  84862043.06348  20724163.1334   20724155.9744
 111260020.69749  86696119.51149  21172071.1954   21172064.6924
 121605056.51147  94757185.39246  23140672.5964   23140668.2864
 124213641.90146  96789830.82046  23637066.2754   23637060.7094
 119124623.50348  92824361.83147  22668659.0114   22668653.7344
 106536600.26549  83015533.29048  20273234.7204   20273228.1904
 98  1 14 22 58  0.0000000  0  6G 7G 2G26G15G19G27
 108856102.58449  84822943.22848  20714614.4854   20714607.3804
 111260093.53549  86696176.26349  21172085.1154   21172078.5214
 121555692.26646  94718719.73847  23131278.9174   23131274.4894
 124192395.13946  96773274.98646  23633023.0094   23633017.5594
 119206070.50548  92887826.97947  22684157.8244   22684152.6024
 106559387.27249  83033289.41648  20277571.0504   20277564.4634
 98  1 14 22 58 30.0000000  0  6G 7G 2G26G15G19G27
 108806248.29249  84784095.75648  20705127.3744   20705120.4154
 111260141.92549  86696213.94849  21172094.3834   21172087.7244
 121506649.85247  94680504.91147  23121946.4914   23121941.9774
 124171513.17746  96757003.43346  23629049.1844   23629043.7884
 119287647.32647  92951393.29847  22699681.4134   22699676.1614
 106582506.77849  83051304.62848  20281970.6294   20281963.9924
 98  1 14 22 59  0.0000000  0  6G 7G 2G26G15G19G27
 108757015.58449  84745732.64548  20695758.5464   20695751.7214
 111260471.76049  86696470.96949  21172157.1844   21172150.5064
 121458234.35347  94642778.53747  23112733.2814   23112728.7504
 124151306.64446  96741258.12346  23625203.9614   23625198.5624
 119369636.06648  93015280.59047  22715283.3874   22715278.0904
 106606270.25549  83069821.61548  20286492.7634   20286486.0604
 98  1 14 22 59 30.0000000  0  6G 7G 2G26G15G19G27
 108708248.48649  84707732.33148  20686478.3814   20686471.6414
 111260937.80249  86696834.09149  21172245.9164   21172239.1844
 121410278.75847  94605410.55947  23103607.5044   23103603.0774
 124131619.02546  96725917.18446  23621457.3424   23621452.0714
 119451864.90348  93079354.92847  22730931.0744   22730925.7294
 106630519.05649  83088716.79648  20291107.2044   20291100.4564
 98  1 14 23  0  0.0000000  0  6G 7G 2G26G15G19G27
 108659944.88749  84670093.18948  20677286.4764   20677279.7784
 111261547.95349  86697309.55049  21172362.0004   21172355.3124
 121362782.97447  94568400.85447  23094569.3214   23094564.8844
 124112453.60446  96710983.11846  23617810.0454   23617804.9444
 119534338.28147  93143619.84047  22746625.3914   22746619.9074
 106655229.15149  83107971.42148  20295809.4154   20295802.6484
 98  1 14 23  0 30.0000000  0  6G 7G 2G26G15G19G27
 108611934.77349  84632682.77248  20668150.3844   20668143.7574
 111262129.92349  86697763.03149  21172472.7694   21172466.0874
 121315604.67047  94531638.54747  23085591.5884   23085587.1224
 124093650.11547  96696331.08546  23614231.7424   23614226.6914
 119616914.66447  93207965.04447  22762339.1784   22762333.7094
 106680228.81149  83127451.67348  20300566.7164   20300559.9244
 98  1 14 23  1  0.0000000  0  6G 7G 2G26G15G19G27
 108564519.33649  84595735.70048  20659127.4674   20659120.9054
 111262997.61849  86698439.15149  21172637.9104   21172631.2184
 121269054.46047  94495365.68847  23076733.2944   23076728.8744
 124075513.78247  96682198.88346  23610780.3584   23610775.3564
 119699921.14547  93272645.35747  22778134.5964   22778129.3634
 106705814.30349  83147388.42248  20305435.4254   20305428.6664
 98  1 14 23  1 30.0000000  0  6G 7G 2G26G15G19G27
 108517564.32249  84559147.40348  20650192.1894   20650185.6544
 111264003.71849  86699223.13549  21172829.4364   21172822.6904
 121222984.33347  94459466.91447  23067966.4294   23067961.9664
 124057892.68746  96668468.18946  23607427.0794   23607422.0894
 119783219.52147  93337553.12147  22793985.7264   22793980.5634
 106731829.12249  83167659.68748  20310385.8214   20310379.1014
 98  1 14 23  2  0.0000000  0  6G 7G 2G26G15G19G27
 108470899.63049  84522785.33648  20641312.1694   20641305.6504
 111264992.55349  86699993.68349  21173017.6524   21173010.8814
 121177252.40548  94423831.66347  23059264.0274   23059259.4124
 124040633.26146  96655019.29446  23604142.7204   23604137.6864
 119866654.49047  93402567.34147  22809862.8724   22809857.7304
 106758121.00949  83188146.88048  20315388.9664   20315382.2834
 98  1 14 23  2 30.0000000  0  6G 7G 2G26G15G19G27
 108424531.68549  84486654.49048  20632488.6074   20632482.0984
 111265966.16649  86700752.36249  21173202.9254   21173196.1734
 121131858.23448  94388459.57547  23050625.9584   23050621.1574
 124023738.40147  96641854.51846  23600927.6404   23600922.6674
 119950214.12547  93467678.67947  22825763.6594   22825758.6144
 106784721.29949  83208874.37048  20320450.8564   20320444.1634
 98  1 14 23  3  0.0000000  0  6G 7G 2G26G15G19G27
 108378934.14649  84451123.95148  20623811.7324   20623805.1474
 111267399.73949  86701869.43249  21173475.7604   21173468.9884
 121087244.95847  94353696.00547  23042136.4184   23042131.5234
 124007669.75446  96629333.50846  23597869.8424   23597864.8634
 120034339.42047  93533230.80147  22841772.1114   22841767.1734
 106812098.85449  83230207.51648  20325660.6084   20325653.9354
 98  1 14 23  3 30.0000000  0  6G 7G 2G26G15G19G27
 108333805.76649  84415959.02048  20615224.1464   20615217.5124
 111268987.89349  86703106.96849  21173777.9884   21173771.1924
 121043103.76547  94319300.28347  23033736.6874   23033731.7054
 123992120.29446  96617217.04246  23594910.8554   23594905.8374
 120118712.61647  93598976.10547  22857827.8084   22857822.9244
 106839952.55249  83251911.71348  20330960.9314   20330954.3374
 98  1 14 23  4  0.0000000  0  6G 7G 2G26G15G19G27
 108288833.82749  84380915.97349  20606666.3184   20606659.6424
 111270415.94649  86704219.73949  21174049.7024   21174042.9424
 120999131.01047  94285035.81747  23025368.9624   23025363.9584
 123976782.66646  96605265.67946  23591992.1774   23591987.1164
 120203028.40647  93664676.64646  22873872.4984   22873867.7434
 106867975.74949  83273747.96448  20336293.5084   20336286.9724
 98  1 14 23  4 30.0000000  0  6G 7G 2G26G15G19G27
 108244808.89049  84346610.82649  20598288.6514   20598282.0054
 111272441.21149  86705797.89249  21174435.0734   21174428.3284
 120956088.24947  94251496.02947  23017178.1854   23017173.1844
 123962423.88146  96594077.06546  23589259.7564   23589254.6964
 120288049.83247  93730927.06846  22890051.5494   22890046.8194
 106896933.44049  83296312.40548  20341803.8794   20341797.4244
 98  1 14 23  5  0.0000000  0  6G 7G 2G26G15G19G27
 108200964.76349  84312446.58149  20589945.3434   20589938.7784
 111274292.38549  86707240.37148  21174787.3404   21174780.5814
 120913217.22247  94218090.06347  23009020.0764   23009015.1824
 123948281.24946  96583056.83946  23586568.5264   23586563.3534
 120373025.67647  93797141.96446  22906221.9984   22906217.2034
 106926038.68549  83318991.78648  20347342.4824   20347335.9454
 98  1 14 23  5 30.0000000  0  6G 7G 2G26G15G19G27
 108157904.26249  84278892.94449  20581751.2264   20581744.6834
 111276588.46749  86709029.51949  21175224.2704   21175217.4944
 120871152.61646  94185312.45247  23001015.2694   23001010.6314
 123934973.40346  96572687.12546  23584035.9964   23584030.8714
 120458569.26047  93863799.27346  22922500.3304   22922495.5844
 106955910.08049  83342268.19948  20353026.8794   20353020.2994
 98  1 14 23  6  0.0000000  0  6G 7G 2G26G15G19G27
 108115003.65649  84245463.92648  20573587.5244   20573581.0064
 111278700.70949  86710675.40849  21175626.2524   21175619.4214
 120829274.53747  94152680.24147  22993045.9694   22993041.5884
 123921880.91747  96562485.24446  23581544.6154   23581539.3454
 120544038.96047  93930399.00746  22938764.5774   22938759.8894
 106985931.18149  83365661.25048  20358739.7644   20358733.1364
 98  1 14 23  6 30.0000000  0  6G 7G 2G26G15G19G27
 108072719.34649  84212515.12448  20565541.0404   20565534.5874
 111281096.18349  86712542.05749  21176082.1314   21176075.2764
 120788039.09948  94120548.73847  22985199.1384   22985194.8234
 123909469.06546  96552813.72646  23579182.7184   23579177.3404
 120629889.60647  93997295.63046  22955101.3774   22955096.7274
 107016572.87749  83389537.90148  20364570.7454   20364564.0884
 98  1 14 23  7  0.0000000  0  6G 7G 2G26G15G19G27
 108030886.21949  84179917.91248  20557580.4854   20557574.0154
 111283634.23449  86714519.75649  21176565.1424   21176558.2504
 120747292.12347  94088797.84547  22977445.3544   22977440.9614
 123897590.15446  96543557.49246  23576922.1894   23576916.7664
 120715969.39247  94064370.77246  22971481.7794   22971477.1624
 107047684.22149  83413780.47948  20370491.0604   20370484.3894
 98  1 14 23  7 30.0000000  0  6G 7G 2G26G15G19G27
 107989652.41249  84147787.69648  20549733.9164   20549727.4734
 111286475.29749  86716733.60149  21177105.8024   21177098.9094
 120707181.84847  94057543.08347  22969812.6224   22969808.2604
 123886394.85946  96534833.96646  23574791.6884   23574786.3164
 120802414.79547  94131730.78546  22987931.9124   22987927.1654
 107079430.07149  83438517.48748  20376532.1304   20376525.4344
 98  1 14 23  8  0.0000000  0  6G 7G 2G26G15G19G27
 107948872.12149  84116010.85548  20541973.5784   20541967.2294
 111289454.33049  86719054.92749  21177672.6814   21177665.8314
 120667543.47647  94026656.07247  22962269.7624   22962265.3514
 123875732.34247  96526525.53146  23572762.7264   23572757.2044
 120889089.14747  94199269.22047  23004425.7424   23004420.7564
 107111649.89649  83463623.82448  20382663.3954   20382656.6734
 98  1 14 23  8 30.0000000  0  6G 7G 2G26G15G19G27
 107908385.15249  84084462.56948  20534269.0214   20534262.7844
 111292421.39549  86721366.95548  21178237.2354   21178230.4674
 120628231.73847  93996023.58847  22954788.9164   22954784.5864
 123865448.46546  96518512.18446  23570805.7934   23570800.1724
 120975852.79048  94266877.23647  23020936.4814   23020931.3554
 107144175.01349  83488968.06748  20388852.7544   20388845.9964
 98  1 14 23  9  0.0000000  0  6G 7G 2G26G15G19G27
 107868359.36949  84053273.65448  20526652.3084   20526646.0414
 111295531.45449  86723790.38048  21178829.0604   21178822.2934
 120589425.57047  93965785.01047  22947404.2054   22947399.9704
 123855708.16647  96510922.36146  23568952.3354   23568946.5674
 121062865.95547  94334679.66947  23037494.6194   23037489.4474
 107177154.07549  83514666.00748  20395128.5094   20395121.6804
 98  1 14 23  9 30.0000000  0  6G 7G 2G26G15G19G27
 107829112.92549  84022692.03348  20519184.0064   20519177.5904
 111299078.57949  86726554.39148  21179504.0084   21179497.2624
 120551440.62547  93936186.42647  22940175.8034   22940171.6024
 123846815.20547  96503992.84146  23567260.2164   23567254.2164
 121150440.75747  94402919.76146  23054159.5384   23054154.4204
 107210886.76049  83540951.20948  20401547.6494   20401540.7644
 98  1 14 23 10  0.0000000  0  6G 7G 2G26G15G19G27
 107790036.87149  83992243.19348  20511748.0804   20511741.5664
 111302429.76049  86729165.70748  21180141.6574   21180134.9414
 120513666.43248  93906752.00447  22932987.5184   22932983.2944
 123838154.95746  96497244.65846  23565612.3564   23565606.1654
 121237968.75447  94471123.35647  23070815.4794   23070810.4804
 107244746.10049  83567335.10048  20407990.9514   20407983.9654
 98  1 14 23 10 30.0000000  0  6G 7G 2G26G15G19G27
 107751290.53848  83962051.27148  20504374.7674   20504368.2984
 111305741.93749  86731746.66948  21180771.8484   21180765.2234
 120476265.00348  93877608.04147  22925870.3344   22925865.9034
 123829882.80847  96490798.89646  23564038.2544   23564031.9684
 121325591.00147  94539400.39846  23087489.3434   23087484.4474
 107278893.16249  83593943.20948  20414488.9324   20414481.9374
 98  1 14 23 11  0.0000000  0  6G 7G 2G26G15G19G27
 107713339.84449  83932479.33048  20497152.8604   20497146.4824
 111309471.05949  86734652.46948  21181481.3574   21181474.8194
 120439686.86148  93849105.61947  22918909.8524   22918905.2444
 123822460.13547  96485015.05446  23562625.8734   23562619.4644
 121413768.30047  94608109.98347  23104268.8654   23104264.0444
 107313801.33649  83621144.38848  20421131.7374   20421124.7434
 98  1 14 23 11 30.0000000  0  6G 7G 2G26G15G19G27
 107675413.78448  83902926.59148  20489935.6284   20489929.3564
 111312860.87849  86737293.91148  21182126.2764   21182119.8404
 120403149.44448  93820634.96047  22911957.0374   22911952.3574
 123815122.64246  96479297.60646  23561229.5834   23561223.1444
 121501740.88247  94676659.98247  23121009.5154   23121004.7314
 107348714.43649  83648349.37948  20427775.4914   20427768.4794
 98  1 14 23 12  0.0000000  0  6G 7G 2G26G15G19G27
 107638261.97848  83873977.16848  20482865.7074   20482859.5964
 111316684.26549  86740273.17248  21182853.7474   21182847.4064
 120367409.60848  93792785.76048  22905156.0554   22905151.2834
 123808638.40746  96474244.98546  23559995.5554   23559989.1964
 121590258.35347  94745634.61547  23137853.9844   23137849.0714
 107384409.45549  83676163.67548  20434568.0394   20434561.0304
 98  1 14 23 12 30.0000000  0  6G 7G 2G26G15G19G27
 107601730.92149  83845511.45048  20475913.9714   20475907.9774
 111320804.65749  86743483.88148  21183637.7364   21183631.4634
 120332322.63048  93765445.25448  22898479.3204   22898474.4674
 123802862.08747  96469744.02346  23558896.2994   23558889.9244
 121679174.40747  94814919.77447  23154774.2894   23154769.2914
 107420748.76849  83704480.01348  20441483.1804   20441476.1694
 98  1 14 23 13  0.0000000  0  6G 7G 2G26G15G19G27
 107565355.08249  83817166.69848  20468991.8444   20468985.9304
 111324779.06549  86746580.81848  21184393.9694   21184387.7214
 120297433.00148  93738258.56947  22891840.1644   22891835.1714
 123797337.69746  96465439.34746  23557844.9354   23557838.6024
 121768040.50747  94884166.05447  23171685.1124   23171680.0314
 107457274.60449  83732941.70048  20448433.7924   20448426.7884
 98  1 14 23 13 30.0000000  0  6G 7G 2G26G15G19G27
 107529596.94149  83789303.22748  20462187.2604   20462181.3854
 111329070.34949  86749924.69448  21185210.5384   21185204.2994
 120263207.64648  93711589.46947  22885327.3674   22885322.1824
 123792521.09346  96461686.19846  23556928.3304   23556921.9834
 121857307.02647  94953724.35347  23188672.0854   23188666.9854
 107494436.84649  83761899.29848  20455505.5324   20455498.5294
 98  1 14 23 14  0.0000000  0  6G 7G 2G26G15G19G27
 107494318.08049  83761813.21648  20455473.8454   20455468.0294
 111333520.73449  86753392.55448  21186057.3714   21186051.1564
 120229500.23248  93685323.95547  22878913.1664   22878907.7844
 123788259.84046  96458365.81846  23556117.4054   23556111.0974
 121946812.58947  95023468.93847  23205704.5704   23205699.4014
 107532082.78249  83791233.78648  20462669.3274   20462662.3114
 98  1 14 23 14 30.0000000  0  6G 7G 2G26G15G19G27
 107459376.73649  83734586.20048  20448824.6924   20448818.8984
 111337980.24649  86756867.51648  21186905.9644   21186899.7624
 120196162.41848  93659346.43247  22872569.1914   22872563.7314
 123784401.76546  96455359.57346  23555383.1784   23555376.9264
 122036417.78148  95093291.15347  23222756.0264   23222750.7454
 107570055.14849  83820822.64948  20469895.1924   20469888.2284
 98  1 14 23 15  0.0000000  0  6G 7G 2G26G15G19G27
 107425084.28449  83707864.83748  20442299.0794   20442293.2834
 111342756.48449  86760589.27749  21187814.9114   21187808.6694
 120163490.63548  93633887.91147  22866351.9454   22866346.4694
 123781257.08146  96452909.18246  23554784.7534   23554778.5314
 122126423.35147  95163425.33046  23239883.6954   23239878.3194
 107608664.30549  83850907.71348  20477242.2474   20477235.3084
 98  1 14 23 15 30.0000000  0  6G 7G 2G26G15G19G27
 107391300.45749  83681539.79748  20435870.2904   20435864.4254
 111347678.17949  86764424.36849  21188751.5264   21188745.2534
 120131326.26248  93608824.80547  22860231.2454   22860225.7424
 123778674.15346  96450896.54246  23554293.2264   23554287.0544
 122216669.88447  95233747.28046  23257057.1344   23257051.7494
 107647754.67149  83881367.74848  20484680.8844   20484673.9454
 98  1 14 23 16  0.0000000  0  6G 7G 2G26G15G19G27
 107358004.32449  83655594.77048  20429534.2474   20429528.3384
 111352734.18249  86768364.12049  21189713.6514   21189707.4264
 120099656.53648  93584147.10747  22854204.6614   22854199.1204
 123776647.36546  96449317.27546  23553907.5414   23553901.3354
 122307150.48748  95304251.57347  23274275.1394   23274269.6784
 107687318.38749  83912196.60848  20492209.5614   20492202.6374
 98  1 14 23 16 30.0000000  0  6G 7G 2G26G15G19G27
 107325196.65349  83630030.35348  20423291.1554   20423285.2014
 111357927.96049  86772411.23349  21190701.9354   21190695.8184
 120068492.12848  93559863.16547  22848274.2954   22848268.6874
 123775182.40146  96448175.77146  23553628.7204   23553622.5384
 122397868.96047  95374941.26946  23291538.3504   23291532.8704
 107727367.02849  83943403.34948  20499830.5174   20499823.5964
 98  1 14 23 17  0.0000000  0  6G 7G 2G26G15G19G27
 107293022.87549  83604959.88948  20417168.6764   20417162.7224
 111363401.57349  86776676.37649  21191743.5414   21191737.4714
 120037990.66048  93536095.79247  22842470.0824   22842464.4214
 123774428.55446  96447588.38846  23553485.3164   23553479.0014
 122488965.52047  95445925.58146  23308873.5094   23308867.9944
 107768043.26449  83975099.12848  20507570.8764   20507564.0294
 98  1 14 23 17 30.0000000  0  6G 7G 2G26G15G19G27
 107261327.37549  83580262.11848  20411137.1524   20411131.2744
 111368997.44849  86781036.79849  21192808.3414   21192802.3764
 120008010.40548  93512734.57447  22836765.0414   22836759.3284
 123774228.35147  96447432.42746  23553447.2544   23553440.8534
 122580279.04647  95517078.88646  23326249.9784   23326244.3894
 107809171.73448  84007147.27748  20515397.3404   20515390.5294
 98  1 14 23 18  0.0000000  0  6G 7G 2G26G15G19G27
 107229969.75448  83555827.60348  20405170.0194   20405164.1314
 111374585.67549  86785391.25448  21193871.7104   21193865.8404
 119978422.48348  93489679.07047  22831134.5524   22831128.9084
 123774449.44747  96447604.74146  23553489.4224   23553482.8584
 122671669.33947  95588292.08846  23343641.1154   23343635.4114
 107850633.24849  84039454.96948  20523287.1564   20523280.4284
 98  1 14 23 18 30.0000000  0  6G 7G 2G26G15G19G27
 107198946.55849  83531653.68848  20399266.5614   20399260.6304
 111380154.09349  86789730.29449  21194931.3204   21194925.5084
 119949227.30947  93466929.59947  22825578.7644   22825573.1784
 123775090.21647  96448104.08746  23553611.4164   23553604.7274
 122763138.97146  95659567.09446  23361047.2554   23361041.4494
 107892427.35849  84072021.80948  20531240.2274   20531233.6294
 98  1 14 23 19  0.0000000  0  6G 7G 2G26G15G19G27
 107168381.53249  83507836.80448  20393450.2184   20393444.3034
 111385836.30849  86794158.00648  21196012.5984   21196006.8164
 119920563.82048  93444594.44847  22820124.1884   22820118.5844
 123776289.99747  96449039.02746  23553839.7154   23553833.0184
 122854825.80147  95731011.27646  23378494.7384   23378488.8184
 107934675.68249  84104942.56748  20539279.7454   20539273.2454
 98  1 14 23 19 30.0000000  0  6G 7G 2G26G15G19G27
 107138440.72949  83484506.29848  20387752.6254   20387746.7564
 111391787.63449  86798795.40148  21197145.0984   21197139.2854
 119892582.23448  93422790.63847  22814799.3864   22814793.7494
 123778208.23147  96450533.76346  23554204.7664   23554197.9874
 122946886.14546  95802746.61046  23396013.1924   23396007.2884
 107977549.98349  84138351.10048  20547438.4414   20547431.9504
 98  1 14 23 20  0.0000000  0  6G 7G 2G26G15G19G27
 107108815.39249  83461421.62148  20382115.1464   20382109.2114
 111397699.43749  86803402.01548  21198270.0534   21198264.2514
 119864969.46447  93401274.20847  22809544.7924   22809539.1414
 123780536.44046  96452348.02746  23554647.7984   23554641.0034
 123039021.30546  95874540.19746  23413545.7514   23413540.0464
 108020757.29449  84172019.14348  20555660.4834   20555654.0154
 98  1 14 23 20 30.0000000  0  6G 7G 2G26G15G19G27
 107079816.99349  83438825.48048  20376597.0414   20376590.9724
 111403892.02749  86808227.42848  21199448.4044   21199442.6514
 119838038.44348  93380289.01147  22804419.9894   22804414.2804
 123783582.54747  96454721.65646  23555227.4774   23555220.6674
 123131546.46446  95946637.63946  23431152.5254   23431146.9324
 108064589.88349  84206174.40748  20564001.4764   20563995.0944
 98  1 14 23 21  0.0000000  0  6G 7G 2G26G15G19G27
 107051163.08049  83416497.78348  20371144.4194   20371138.2904
 111410075.18949  86813045.47248  21200625.0214   21200619.2214
 119811480.89348  93359594.83847  22799366.3624   22799360.5214
 123787040.76247  96457416.42446  23555885.5534   23555878.8034
 123224156.40146  96018801.16946  23448775.4794   23448770.0184
 108108736.63349  84240574.45648  20572402.2764   20572395.9534
 98  1 14 23 21 30.0000000  0  6G 7G 2G26G15G19G27
 107023171.28449  83394686.02448  20365817.7454   20365811.6054
 111416572.43649  86818108.29848  21201861.3464   21201855.5844
 119785590.08648  93339420.22047  22794439.4814   22794433.6434
 123791218.50747  96460671.81646  23556680.5164   23556673.8644
 123317162.04246  96091273.02646  23466473.7694   23466468.4624
 108153516.95649  84275468.23348  20580923.6524   20580917.3694
 98  1 14 23 22  0.0000000  0  6G 7G 2G26G15G19G27
 106995368.45049  83373021.49448  20360527.0304   20360520.8754
 111422931.75749  86823063.61248  21203071.4134   21203065.7074
 119759910.01547  93319409.80447  22789552.7504   22789546.8494
 123795654.26347  96464128.32846  23557524.5764   23557518.0104
 123410103.19147  96163694.69146  23484159.7994   23484154.6494
 108198455.08949  84310484.96648  20589475.1184   20589468.7984
 98  1 14 23 22 30.0000000  0  6G 7G 2G26G15G19G27
 106968362.68749  83351978.07748  20355387.9804   20355381.8274
 111429766.60949  86828389.48448  21204372.0544   21204366.3404
 119735062.28848  93300047.89747  22784824.3374   22784818.4284
 123800964.11147  96468265.90646  23558534.9594   23558528.4794
 123503591.78047  96236542.90246  23501950.1214   23501945.0334
 108244163.23149  84346101.69748  20598173.1604   20598166.7524
 98  1 14 23 23  0.0000000  0  6G 7G 2G26G15G19G27
 106941829.75649  83331303.09648  20350338.9194   20350332.7704
 111436757.75649  86833837.13948  21205702.4374   21205696.6984
 119710730.13647  93281087.83847  22780193.9884   22780188.1424
 123806833.14347  96472839.13746  23559651.7394   23559645.2794
 123597305.28847  96309566.38946  23519783.2334   23519778.2214
 108290333.17349  84382078.27648  20606959.0674   20606952.5854
 98  1 14 23 23 30.0000000  0  6G 7G 2G26G15G19G27
 106915588.19749  83310855.17248  20345345.3054   20345339.2094
 111443738.53949  86839276.73148  21207030.8604   21207025.0714
 119686772.22947  93262419.33547  22775634.7364   22775629.0884
 123813105.98347  96477727.11346  23560845.4094   23560838.9264
 123691069.97447  96382629.74446  23537626.0954   23537621.1154
 108336812.00749  84418295.54348  20615803.7674   20615797.2274
 98  1 14 23 24  0.0000000  0  6G 7G 2G26G15G19G27
 106889637.91049  83290634.18648  20340407.1174   20340401.0684
 111450692.73849  86844695.60448  21208354.2364   21208348.3854
 119663202.81848  93244053.58247  22771149.6024   22771143.9984
 123819783.37547  96482930.28946  23562116.0634   23562109.5344
 123784879.06347  96455727.71646  23555477.2884   23555472.4634
 108383589.55949  84454745.56248  20624705.3224   20624698.6944
 98  1 14 23 24 30.0000000  0  6G 7G 2G26G15G19G27
 106864456.53649  83271012.36548  20335615.2024   20335609.2344
 111458079.91249  86850451.84448  21209759.9684   21209754.0874
 119640478.87048  93226346.57447  22766825.4504   22766819.7974
 123827332.04347  96488812.38046  23563552.4204   23563545.9554
 123879196.21347  96529221.56746  23573425.2564   23573420.4884
 108431143.78149  84491800.79848  20633754.6254   20633747.9764
 98  1 14 23 25  0.0000000  0  6G 7G 2G26G15G19G27
 106839593.09849  83251638.30848  20330883.8594   20330877.9074
 111465430.85149  86856179.87148  21211158.7934   21211152.8994
 119618127.34248  93208929.80647  22762572.1074   22762566.4904
 123835287.88447  96495011.78346  23565066.3304   23565059.8214
 123973538.34947  96602734.85846  23591378.0274   23591373.3684
 108479010.31149  84529099.39848  20642863.3834   20642856.7064
 98  1 14 23 25 30.0000000  0  6G 7G 2G26G15G19G27
 106815372.61649  83232765.24748  20326274.8664   20326268.9134
 111473043.05949  86862111.48148  21212607.3014   21212601.4134
 119596445.66648  93192035.03047  22758446.2104   22758440.6444
 123843956.89247  96501766.87446  23566715.9524   23566709.3924
 124068206.84347  96676502.51946  23609392.9264   23609388.3374
 108527488.64649  84566874.72648  20652088.5034   20652081.8574
 98  1 14 23 26  0.0000000  0  6G 7G 2G26G15G19G27
 106791504.77349  83214166.97548  20321732.9914   20321727.0104
 111480617.12249  86868013.33548  21214048.5974   21214042.6754
 119575104.81048  93175405.80647  22754385.1444   22754379.6024
 123853032.57347  96508838.81445  23568443.0084   23568436.3254
 124162899.76347  96750289.17646  23627412.5094   23627407.9294
 108576280.57849  84604894.40548  20661373.2514   20661366.6814
 98  1 14 23 26 30.0000000  0  6G 7G 2G26G15G19G27
 106768301.07949  83196086.22048  20317317.4394   20317311.4744
 111488479.06749  86874139.56448  21215544.6284   21215538.7484
 119554409.13948  93159279.31247  22750446.9844   22750441.3024
 123862827.61448  96516471.38345  23570306.9554   23570300.1844
 124257925.10148  96824334.87746  23645495.3604   23645490.7834
 108625706.53049  84643408.13048  20670778.6744   20670772.1114
 98  1 14 23 27  0.0000000  0  6G 7G 2G26G15G19G27
 106745582.36149  83178383.33048  20312994.1274   20312988.2174
 111496470.68849  86880366.82248  21217065.3234   21217059.4774
 119534204.19648  93143535.20447  22746602.1824   22746596.3234
 123873180.94947  96524538.91945  23572277.1644   23572270.2224
 124353118.43347  96898511.43146  23663610.1084   23663605.5774
 108675597.88049  84682284.46348  20680272.7294   20680266.0944
 98  1 14 23 27 30.0000000  0  6G 7G 2G26G15G19G27
 106723633.90249  83161280.64948  20308817.4624   20308811.5064
 111504910.04149  86886942.91348  21218671.3264   21218665.4104
 119514798.74148  93128414.10047  22742909.5074   22742903.5494
 123884402.21047  96533282.78346  23574412.4284   23574405.4564
 124448811.08546  96973077.11646  23681819.7554   23681815.3864
 108726262.26049  84721763.18448  20689913.9004   20689907.2004
 98  1 14 23 28  0.0000000  0  6G 7G 2G26G15G19G27
 106701822.44949  83144284.74248  20304666.8814   20304660.8874
 111513190.00349  86893394.84748  21220246.9864   21220241.0234
 119495593.60248  93113449.03147  22739254.8904   22739248.9114
 123895879.96847  96542226.51746  23576596.5134   23576589.5774
 124544405.29046  97047566.04846  23700010.5964   23700006.4354
 108777099.11949  84761376.32748  20699587.7974   20699581.1504
 98  1 14 23 28 30.0000000  0  6G 7G 2G26G15G19G27
 106680442.87449  83127625.34848  20300598.4954   20300592.4624
 111521610.96249  86899956.66248  21221849.4304   21221843.4554
 119476921.35448  93098899.28047  22735701.6324   22735695.7444
 123907921.67847  96551609.67146  23578887.9514   23578881.0844
 124640218.45346  97122225.65746  23718243.1044   23718239.0904
 108828403.81649  84801353.99348  20709350.7204   20709344.1354
 98  1 14 23 29  0.0000000  0  6G 7G 2G26G15G19G27
 106659494.10649  83111301.65949  20296612.1254   20296606.0354
 111530164.92749  86906622.09448  21223477.1714   21223471.1614
 119458789.38648  93084770.48747  22732251.2334   22732245.3634
 123920528.16647  96561432.94946  23581286.8744   23581280.0144
 124736262.01646  97197064.78246  23736519.5274   23736515.5384
 108880177.28449  84841696.93548  20719202.8364   20719196.3094
 98  1 14 23 29 30.0000000  0  6G 7G 2G26G15G19G27
 106639139.90949  83095441.24949  20292738.9214   20292732.7614
 111539006.24149  86913511.42848  21225159.6184   21225153.5454
 119441343.14947  93071175.98547  22728931.3254   22728925.4474
 123933847.63247  96571811.78146  23583821.4844   23583814.6304
 124832681.18147  97272196.52646  23754867.4614   23754863.5074
 108932559.50049  84882514.23548  20729170.8164   20729164.3254
 98  1 14 23 30  0.0000000  0  6G 7G 2G26G15G19G27
 106619109.21749  83079832.93548  20288927.3024   20288921.0514
 111547834.97049  86920390.97348  21226839.6334   21226833.5704
 119424293.13048  93057890.26947  22725686.7664   22725680.9254
 123947585.22947  96582516.44446  23586435.6384   23586428.8344
 124929165.00547  97347378.68646  23773227.7104   23773223.7904
 108985248.75149  84923570.76848  20739197.2604   20739190.7504
 98  1 14 23 30 30.0000000  0  6G 7G 2G26G15G19G27
 106599401.10249  83064475.97148  20285177.0564   20285170.7094
 111556644.78049  86927255.75348  21228516.0964   21228509.9744
 119407618.15648  93044896.78047  22722513.5894   22722507.7674
 123961732.25447  96593540.11646  23589127.6564   23589120.9274
 125025684.57847  97422588.73646  23791594.8814   23791590.8364
 109038217.50349  84964845.09848  20749276.8904   20749270.3634
 98  1 14 23 31  0.0000000  0  6G 7G 2G26G15G19G27
 106580480.65449  83049732.78548  20281576.5904   20281570.2414
 111565895.36149  86934464.01548  21230276.4354   21230270.2744
 119391758.88548  93032538.89547  22719495.7294   22719489.8294
 123976747.83446  96605240.61046  23591984.9424   23591978.3224
 125122677.28047  97498167.44846  23810052.0624   23810047.8844
 109091925.26149  85006695.29048  20759497.1844   20759490.5614
 98  1 14 23 31 30.0000000  0  6G 7G 2G26G15G19G27
 106561746.98849  83035135.12848  20278011.6094   20278005.3294
 111574969.23049  86941534.51648  21232003.1714   21231996.9324
 119376105.85348  93020341.76347  22716517.1754   22716511.1654
 123992023.36546  96617143.63146  23594891.7564   23594885.1624
 125219535.65746  97573641.45246  23828483.6224   23828479.4224
 109145757.07149  85048642.15048  20769741.0374   20769734.3374
 98  1 14 23 32  0.0000000  0  6G 7G 2G26G15G19G27
 106543969.54249  83021282.57848  20274628.6864   20274622.3804
 111584625.89349  86949059.19648  21233840.8204   21233834.5214
 119361427.37948  93008903.97147  22713724.0974   22713717.8944
 124008327.08046  96629847.83146  23597994.1074   23597987.6884
 125317038.72047  97649617.80146  23847037.9334   23847033.6684
 109200489.50849  85091290.78648  20780156.2854   20780149.5084
 98  1 14 23 32 30.0000000  0  6G 7G 2G26G15G19G27
 106526373.22849  83007571.17448  20271280.2664   20271273.9154
 111594093.70849  86956436.72648  21235642.4504   21235636.2044
 119346953.72048  92997625.81247  22710969.9824   22710963.5614
 124024884.94847  96642750.09546  23601144.8574   23601138.5074
 125414417.29046  97725497.13546  23865568.5774   23865564.2074
 109255366.24649  85134051.85348  20790599.0054   20790592.1674
 98  1 14 23 33  0.0000000  0  6G 7G 2G26G15G19G27
 106509122.04449  82994128.70548  20267997.4754   20267991.1274
 111603521.40149  86963782.99048  21237436.4324   21237430.2524
 119332851.15548  92986636.79447  22708286.4134   22708279.8394
 124041853.62246  96655972.45845  23604373.7934   23604367.4824
 125511843.62547  97801413.72746  23884108.2884   23884103.8144
 109310560.17149  85177060.09848  20801102.1074   20801095.2204
 98  1 14 23 33 30.0000000  0  6G 7G 2G26G15G19G27
 106492839.77749  82981441.22748  20264898.9914   20264892.6844
 111613529.32249  86971581.37748  21239340.8884   21239334.7134
 119319750.07148  92976428.18047  22705793.3834   22705786.7304
 124059854.13546  96669998.76646  23607799.0224   23607792.8034
 125609947.14846  97877857.99246  23902776.7444   23902772.3304
 109366698.86749  85220804.50948  20811785.0174   20811778.0514
 98  1 14 23 34  0.0000000  0  6G 7G 2G26G15G19G27
 106476758.28249  82968910.20848  20261838.6894   20261832.4364
 111623362.38449  86979243.50248  21241212.0464   21241205.8824
 119306886.95048  92966404.96047  22703345.6254   22703338.9724
 124078120.17246  96684232.15745  23611274.7434   23611268.6514
 125707943.68446  97954218.89446  23921424.8054   23921420.4734
 109423024.34449  85264694.49448  20822503.4114   20822496.4344
 98  1 14 23 34 30.0000000  0  6G 7G 2G26G15G19G27
 106461169.66049  82956763.25048  20258872.2614   20258865.9794
 111633326.67749  86987007.86648  21243108.2834   21243102.0354
 119294578.65648  92956814.12747  22701003.4224   22700996.7934
 124096963.33546  96698915.18145  23614860.2644   23614854.3044
 125806134.33046  98030731.05846  23940109.7924   23940105.5864
 109479848.98449  85308973.41948  20833316.8044   20833309.8004
 98  1 14 23 35  0.0000000  0  6G 7G 2G26G15G19G27
 106446059.70349  82944989.26448  20255996.9084   20255990.5904
 111643414.84749  86994868.78248  21245028.0574   21245021.7354
 119282813.29248  92947646.31447  22698764.5954   22698757.9504
 124116380.49246  96714045.42145  23618555.1194   23618549.2184
 125904516.06346  98107392.07346  23958831.1544   23958827.0354
 109537149.82049  85353623.43548  20844220.7914   20844213.7594
 98  1 14 23 35 30.0000000  0  6G 7G 2G26G15G19G27
 106431427.95449  82933587.91648  20253212.5554   20253206.1734
 111653639.92149  87002836.38848  21246973.8604   21246967.5064
 119271595.91448  92938905.51347  22696630.0114   22696623.3884
 124136378.69446  96729628.46245  23622360.5554   23622354.6944
 126003084.19046  98184198.41046  23977587.9264   23977583.9424
 109594921.64549  85398640.43748  20855214.4274   20855207.3414
 98  1 14 23 36  0.0000000  0  6G 7G 2G26G15G19G27
 106417114.68949  82922434.71548  20250488.7724   20250482.3714
 111663860.27449  87010800.31648  21248918.7174   21248912.3794
 119260773.40448  92930472.44647  22694570.5564   22694563.9924
 124156803.21847  96745543.70045  23626247.2374   23626241.2514
 126101683.81146  98261029.20846  23996350.7514   23996346.8844
 109653001.32349  85443897.32548  20866266.6944   20866259.5354
 98  1 14 23 36 30.0000000  0  6G 7G 2G26G15G19G27
 106403420.43849  82911763.90348  20247882.7954   20247876.3584
 111674384.23049  87019000.84748  21250921.2874   21250915.0474
 119250648.00048  92922582.52647  22692643.7684   22692637.2544
 124177955.44247  96762025.94646  23630272.3354   23630266.2474
 126200613.10946  98338116.91646  24015176.4304   24015172.5814
 109711675.50749  85489617.48148  20877432.0914   20877424.8794
 98  1 14 23 37  0.0000000  0  6G 7G 2G26G15G19G27
 106390207.51449  82901468.13848  20245368.4714   20245361.9364
 111685068.03349  87027325.89148  21252954.3124   21252948.1234
 119241064.03348  92915114.49747  22690820.0474   22690813.5624
 124199677.90546  96778952.57646  23634406.0184   23634399.8114
 126299708.80447  98415334.30846  24034033.8444   24034029.8874
 109770783.53549  85535675.65848  20888680.0704   20888672.7564
 98  1 14 23 37 30.0000000  0  6G 7G 2G26G15G19G27
 106377319.18649  82891425.33348  20242915.8684   20242909.3044
 111695766.95149  87035662.72848  21254990.2014   21254984.0794
 119231878.88448  92907957.24247  22689072.1714   22689065.7484
 124221818.75847  96796205.22446  23638619.4014   23638613.0534
 126398813.02646  98492558.36146  24052892.8704   24052888.8354
 109830188.14649  85581964.97948  20899984.4274   20899977.1274
 98  1 14 23 38  0.0000000  0  6G 7G 2G26G15G19G27
 106365054.31949  82881868.29548  20240581.8824   20240575.3324
 111706784.37649  87044247.73048  21257086.7114   21257080.6254
 119223390.58148  92901343.00147  22687456.8654   22687450.4524
 124244681.24846  96814020.15146  23642970.0724   23642963.5794
 126498235.86746  98570030.62746  24071812.4074   24071808.4304
 109890195.80849  85628724.19148  20911403.5414   20911396.2504
 98  1 14 23 38 30.0000000  0  6G 7G 2G26G15G19G27
 106353248.89848  82872669.27248  20238335.2664   20238328.7754
 111717955.40849  87052952.44748  21259212.3814   21259206.3904
 119215434.86847  92895143.71747  22685942.8844   22685936.4784
 124268113.35447  96832278.95946  23647429.1134   23647422.5214
 126597830.57346  98647636.84146  24090764.6494   24090760.7984
 109950662.78849  85675841.31248  20922910.0494   20922902.7634
 98  1 14 23 39  0.0000000  0  6G 7G 2G26G15G19G27
 106341739.26248  82863700.74948  20236144.9964   20236138.5554
 111729106.51149  87061641.62748  21261334.2344   21261328.3614
 119207844.55047  92889229.18447  22684498.4234   22684492.0734
 124291959.62047  96850860.47846  23651966.9544   23651960.3024
 126697457.71946  98725268.37845  24109723.1724   24109719.2884
 110011454.33449  85723211.37148  20934478.2364   20934471.0304
 98  1 14 23 39 30.0000000  0  6G 7G 2G26G15G19G27
 106330824.20649  82855195.50848  20234067.9304   20234061.4584
 111740546.85149  87070556.19148  21263511.1284   21263505.3734
 119200925.16547  92883837.44747  22683181.6604   22683175.4174
 124316532.18846  96870007.93546  23656642.9704   23656636.2764
 126797434.57546  98803172.39146  24128748.1834   24128744.2904
 110072881.13749  85771076.38848  20946167.3684   20946160.2024
 98  1 14 23 40  0.0000000  0  6G 7G 2G26G15G19G27
 106320355.91449  82847038.42448  20232075.9044   20232069.3844
 111752121.13249  87079575.13748  21265713.5334   21265707.8474
 119194505.16947  92878834.87147  22681959.9284   22681953.7984
 124341673.98746  96889598.93046  23661427.2724   23661420.5214
 126897597.73646  98881221.55246  24147808.6104   24147804.8144
 110134781.17049  85819310.20548  20957946.5174   20957939.4394
 98  1 14 23 40 30.0000000  0  6G 7G 2G26G15G19G27
 106310039.42349  82838999.63248  20230112.8124   20230106.2294
 111763517.67349  87088455.56048  21267882.1284   21267876.4914
 119188282.31847  92873985.92548  22680775.6644   22680769.6974
 124367075.91347  96909392.65146  23666261.1214   23666254.2744
 126997629.04646  98959168.00146  24166843.9954   24166840.1944
 110196855.21549  85867679.56848  20969758.8634   20969751.7924
 98  1 14 23 41  0.0000000  0  5G 7G 2G26G15G27
 106300515.77749  82831578.61448  20228300.6184   20228293.9254
 111775357.13249  87097681.12348  21270135.0314   21270129.4064
 119182895.26148  92869788.22948  22679750.4934   22679744.6384
 124393358.65546  96929872.70445  23671262.5494   23671255.6514
 110259709.30449  85916656.79548  20981719.6104   20981712.6234
 98  1 14 23 41 30.0000000  0  5G 7G 2G26G15G27
 106291487.68149  82824543.74948  20226582.6994   20226575.8944
 111787349.59749  87107025.91248  21272417.0494   21272411.4694
 119178049.67748  92866012.45947  22678828.4934   22678822.6024
 124420214.23946  96950799.13946  23676372.9854   23676366.0394
 110323016.47749  85965987.07048  20993766.4694   20993759.6414
 98  1 14 23 42  0.0000000  0  5G 7G 2G26G15G27
 106282807.84449  82817780.25048  20224930.9694   20224924.1634
 111799330.98049  87116362.05248  21274697.0074   21274691.4194
 119173586.85548  92862534.90547  22677979.2944   22677973.3024
 124447480.23147  96972045.40146  23681561.4594   23681554.5474
 110386603.32649  86015535.24848  21005866.6684   21005859.8734
 98  1 14 23 42 30.0000000  0  5G 7G 2G26G15G27
 106274622.09549  82811401.75748  20223373.1904   20223366.4554
 111811432.00849  87125791.44548  21276999.7684   21276994.1274
 119169662.02148  92859476.58447  22677232.3994   22677226.3834
 124475299.88946  96993723.04146  23686855.2574   23686848.4794
 110450600.88448  86065403.48348  21018044.8914   21018038.2364
 98  1 14 23 43  0.0000000  0  5G 7G 2G26G15G27
 106267218.10548  82805632.41948  20221964.2224   20221957.4774
 111823966.31749  87135558.45748  21279384.9444   21279379.2854
 119166581.16248  92857075.90247  22676646.1314   22676640.0514
 124503977.63347  97016069.37746  23692312.4144   23692305.7134
 110515291.40449  86115811.66748  21030355.0884   21030348.4604
 98  1 14 23 43 30.0000000  0  5G 7G 2G26G15G27
 106260127.01048  82800106.92548  20220614.9034   20220608.0194
 111836493.28849  87145319.76248  21281768.7474   21281763.0504
 119163872.61548  92854965.34647  22676130.7474   22676124.6014
 124533062.70647  97038733.10246  23697847.1084   23697840.4414
 110580236.23948  86166418.00648  21042713.6674   21042707.0604
 98  1 14 23 44  0.0000000  0  5G 7G 2G26G15G27
 106253493.23047  82794937.75748  20219352.6674   20219345.6104
 111849161.53349  87155191.11848  21284179.4464   21284173.6904
 119161688.01348  92853263.06047  22675715.0914   22675708.8554
 124562715.49347  97061839.17146  23703489.7514   23703483.1954
 110645612.01049  86217360.16948  21055154.2274   21055147.6724
 98  1 14 23 44 30.0000000  0  5G 7G 2G26G15G27
 106247281.33648  82790097.33848  20218170.5364   20218163.4234
 111861970.14049  87165171.83948  21286616.8554   21286611.0234
 119160027.61548  92851969.26347  22675399.0684   22675392.8974
 124592927.32747  97085380.92146  23709238.8364   23709232.3614
 110711427.84049  86268645.20248  21067678.6114   21067672.0004
 98  1 14 23 45  0.0000000  0  5G 7G 2G26G15G27
 106241478.05548  82785575.31848  20217066.1964   20217059.0544
 111874935.34349  87175274.60548  21289084.0394   21289078.1464
 119158880.01148  92851075.03247  22675180.6744   22675174.4864
 124623688.90747  97109351.02146  23715092.5824   23715086.1504
 110777690.63548  86320278.55448  21080287.9064   21080281.3774
 98  1 14 23 45 30.0000000  0  5G 7G 2G26G15G27
 106236099.30449  82781384.10048  20216042.7254   20216035.5004
 111888049.49749  87185493.42748  21291579.6154   21291573.6254
 119158248.16048  92850582.67748  22675060.4494   22675054.2784
 124655005.15747  97133753.26846  23721051.8664   23721045.4584
 110844422.64648  86372277.51848  21092986.5384   21092980.0554
 98  1 14 23 46  0.0000000  0  5G 7G 2G26G15G27
 106231009.00149  82777417.63748  20215074.1564   20215066.8344
 111901158.54149  87195708.28848  21294074.2674   21294068.1384
 119157995.62348  92850385.89947  22675012.4044   22675006.2384
 124686721.57647  97158467.38446  23727087.3474   23727080.8834
 110911463.52448  86424517.13848  21105744.0644   21105737.4894
 98  1 14 23 46 30.0000000  0  5G 7G 2G26G15G27
 106226384.57349  82773814.20948  20214194.1334   20214186.8564
 111914420.44649  87206042.25548  21296598.0064   21296591.7374
 119158275.19248  92850603.73847  22675065.6284   22675059.4524
 124718990.31648  97183611.86846  23733227.9204   23733221.4534
 110978953.31548  86477106.58348  21118586.8734   21118580.3534
 98  1 14 23 47  0.0000000  0  5G 7G 2G26G15G27
 106222561.88749  82770835.50848  20213466.6764   20213459.4724
 111928124.43549  87216720.70748  21299205.8134   21299199.4634
 119159374.82648  92851460.63947  22675274.9064   22675268.7164
 124752120.66347  97209427.75946  23739532.5114   23739525.9884
 111047188.92548  86530277.17448  21131571.6304   21131565.1244
 98  1 14 23 47 30.0000000  0  5G 7G 2G26G15G27
 106218925.49949  82768001.96848  20212774.6944   20212767.5394
 111941632.11749  87227246.17748  21301776.2874   21301769.8444
 119160668.53948  92852468.70847  22675521.0554   22675514.8964
 124785494.02747  97235432.98446  23745883.3584   23745876.7604
 111115543.88448  86583540.74048  21144579.1354   21144572.6154
 98  1 14 23 48  0.0000000  0  5G 7G 2G26G15G27
 106216097.88449  82765798.65348  20212236.6414   20212229.5124
 111955579.42949  87238114.20948  21304430.4194   21304423.8834
 119162771.11847  92854107.09347  22675921.1154   22675915.0074
 124819736.60747  97262115.53446  23752399.5994   23752392.9574
 111184633.75048  86637376.98448  21157726.4044   21157719.9764
 98  1 14 23 48 30.0000000  0  5G 7G 2G26G15G27
 106213748.68149  82763968.12948  20211789.6144   20211782.4954
 111969645.98149  87249075.15848  21307107.2904   21307100.6434
 119165360.13448  92856124.53247  22676413.7294   22676407.7174
 124854536.19147  97289232.10946  23759021.7994   23759015.1624
 111254135.25148  86691533.97148  21170952.0884   21170945.6654
 98  1 14 23 49  0.0000000  0  5G 7G 2G26G15G27
 106211695.04249  82762367.89348  20211398.8084   20211391.6554
 111983667.79949  87260001.26648  21309775.5894   21309768.9104
 119168271.70348  92858393.28047  22676967.6634   22676961.7984
 124889726.33148  97316653.01546  23765718.3434   23765711.6584
 111323884.54548  86745884.03848  21184224.8194   21184218.5374
 98  1 14 23 49 30.0000000  0  5G 7G 2G26G15G27
 106210394.98649  82761354.87348  20211151.3804   20211144.2044
 111998134.07249  87271273.69548  21312528.4774   21312521.7684
 119171998.69848  92861297.40847  22677676.8274   22677670.9404
 124925779.76147  97344746.56646  23772579.1314   23772572.4064
 111394366.29448  86800804.87748  21197637.0494   21197630.8134
 98  1 14 23 50  0.0000000  0  5G 7G 2G26G15G27
 106209373.11249  82760558.62548  20210956.9004   20210949.6914
 112012577.17749  87282528.06948  21315276.9924   21315270.2164
 119176090.95348  92864486.15347  22678455.5344   22678449.5424
 124962230.60347  97373149.80546  23779515.5314   23779508.7824
 111465118.51548  86855936.42048  21211100.8214   21211094.5454
 98  1 14 23 50 30.0000000  0  6G 7G 2G26G15G 4G27
 106208476.27749  82759859.80048  20210786.2504   20210779.0014
 112026840.31249  87293642.21148  21317991.2484   21317984.4034
 119180410.03748  92867851.66547  22679277.4044   22679271.3274
 124998923.96747  97401742.03946  23786498.0824   23786491.3284
 126174136.47157                  24010139.9604
 111536001.83848  86911170.18248  21224589.4454   21224583.2094
 98  1 14 23 51  0.0000000  0  6G 7G 2G26G15G 4G27
 106208014.49049  82759499.99148  20210698.3864   20210691.0864
 112041246.34749  87304867.70148  21320732.6724   21320725.7984
 119185272.25648  92871640.42447  22680202.6544   22680196.5204
 125036166.77848  97430762.44946  23793585.2484   23793578.4244
 126071963.79047  98237881.93757  23990697.3124   23990693.9924
 111607345.69548  86966762.77548  21238165.7654   21238159.5034
 98  1 14 23 51 30.0000000  0  6G 7G 2G26G15G 4G27
 106208124.33349  82759585.58148  20210719.2534   20210711.9574
 112055941.94249  87316318.83548  21323529.2234   21323522.3124
 119190824.19148  92875966.61447  22681259.1644   22681253.0054
 125074106.42147  97460325.80346  23800804.9344   23800798.1284
 125969932.39147  98158377.04846  23971281.7034   23971278.1934
 111679288.32248  87022821.96248  21251856.0154   21251849.7444
 98  1 14 23 52  0.0000000  0  6G 7G 2G26G15G 4G27
 106208661.31749  82760004.01448  20210821.4144   20210814.1274
 112070787.84449  87327887.09448  21326354.3754   21326347.4154
 119196911.60948  92880710.04748  22682417.5854   22682411.4304
 125112597.81647  97490319.10546  23808129.5674   23808122.8594
 125867894.37647  98078867.04246  23951864.2414   23951861.0074
 111751673.25548  87079225.79148  21265630.3984   21265624.1354
 98  1 14 23 52 30.0000000  0  6G 7G 2G26G15G 4G27
 106209625.89249  82760755.64748  20211004.8714   20210997.6694
 112085796.51249  87339582.16548  21329210.4424   21329203.5014
 119203516.82048  92885857.00148  22683674.5034   22683668.3994
 125151635.61347  97520738.18246  23815558.1184   23815551.5704
 125765850.62047  97999352.57046  23932445.7224   23932442.6694
 111824489.14448  87135965.38848  21279486.8254   21279480.5244
 98  1 14 23 53  0.0000000  0  6G 7G 2G26G15G 4G27
 106211019.02749  82761841.20748  20211269.9054   20211262.7894
 112100964.34449  87351401.28148  21332096.7964   21332089.8504
 119210641.92548  92891409.05948  22685030.4254   22685024.2994
 125191219.00647  97551582.40046  23823090.5164   23823084.0734
 125663813.20947  97919842.99646  23913028.4824   23913025.4064
 111897714.20848  87193023.85048  21293421.0684   21293414.8294
 98  1 14 23 53 30.0000000  0  6G 7G 2G26G15G 4G27
 106212700.05748  82763151.12048  20211589.7594   20211582.6834
 112116114.56749  87363206.66148  21334979.8594   21334972.8294
 119218138.03548  92897250.18147  22686456.9584   22686450.7764
 125231192.13847  97582730.26646  23830697.1384   23830690.7314
 125561627.23347  97840217.64246  23893582.9474   23893579.8824
 111971183.45648  87250272.60448  21307401.7654   21307395.6064
 98  1 14 23 54  0.0000000  0  6G 7G 2G26G15G 4G27
 106215157.99249  82765066.42848  20212057.5004   20212050.4514
 112131711.65349  87375360.24748  21337947.8624   21337940.8134
 119226476.28247  92903747.52447  22688043.6624   22688037.4634
 125272018.73247  97614543.18946  23838466.1684   23838459.7874
 125459773.74347  97760851.39146  23874200.7424   23874197.7884
 112045369.75848  87308080.06448  21321518.9734   21321512.8394
 98  1 14 23 54 30.0000000  0  6G 7G 2G26G15G 4G27
 106217936.07349  82767231.19348  20212586.1044   20212579.1404
 112147278.98649  87387490.63048  21340910.1674   21340903.1314
 119235194.60447  92910541.05647  22689702.5134   22689696.4984
 125313228.15447  97646654.43446  23846308.0734   23846301.6964
 125357776.98247  97681373.50046  23854791.4034   23854788.4144
 112119805.86448  87366082.19348  21335683.7404   21335677.6434
 98  1 14 23 55  0.0000000  0  6G 7G 2G26G15G 4G27
 106220894.27349  82769536.30948  20213148.8764   20213142.1034
 112162666.34449  87399480.80848  21343838.2014   21343831.2094
 119244150.70847  92917519.87947  22691406.5064   22691400.7524
 125354675.80747  97678951.30846  23854195.2754   23854188.8774
 125255482.25347  97601663.42046  23835325.4474   23835322.3374
 112194345.29848  87424164.85448  21349868.1114   21349862.1284
 98  1 14 23 55 30.0000000  0  6G 7G 2G26G15G 4G27
 106224797.02349  82772577.41048  20213891.4734   20213884.7714
 112178663.55249  87411946.14848  21346882.3574   21346875.3414
 119254093.49647  92925267.50847  22693298.3304   22693292.7254
 125397134.11647  97712035.73346  23862274.8114   23862268.4164
 125153666.65447  97522326.69946  23815950.6544   23815947.4234
 112269775.67148  87482941.74148  21364222.0584   21364216.1364
 98  1 14 23 56  0.0000000  0  6G 7G 2G26G15G 4G27
 106229016.82849  82775865.61248  20214694.4514   20214687.7684
 112194677.43449  87424424.51948  21349929.5784   21349922.6724
 119264384.23047  92933286.24347  22695256.4014   22695250.8914
 125439987.22147  97745427.80646  23870429.4744   23870423.0864
 125051724.41947  97442891.31146  23796551.7394   23796548.3834
 112345482.07048  87541933.69748  21378628.5544   21378622.6354
 98  1 14 23 56 30.0000000  0  6G 7G 2G26G15G 4G27
 106233527.87649  82779380.69848  20215552.8284   20215546.1274
 112210711.02949  87436918.23148  21352980.6224   21352973.7644
 119275011.90847  92941567.53647  22697278.7814   22697273.1914
 125483231.75146  97779124.84246  23878658.5274   23878652.2004
 124949650.06948  97363352.95546  23777127.7084   23777124.1674
 112421456.70548  87601134.71348  21393086.1064   21393080.1434
 98  1 14 23 57  0.0000000  0  6G 7G 2G26G15G 4G27
 106238780.08649  82783473.36448  20216552.2194   20216545.5214
 112227230.33449  87449790.42748  21356124.0704   21356117.2864
 119286424.56648  92950460.51947  22699450.6214   22699444.8564
 125527330.02547  97813487.15846  23887050.1024   23887043.7834
 124847928.38148  97284089.43946  23757770.8804   23757767.0544
 112498172.69949  87660913.39948  21407684.8174   21407678.6944
 98  1 14 23 57 30.0000000  0  6G 7G 2G26G15G 4G27
 106244298.81249  82787773.68648  20217602.3854   20217595.6734
 112243760.42649  87462671.03948  21359269.6304   21359262.8784
 119298149.99848  92959597.25847  22701681.9564   22701676.0654
 125571813.66047  97848149.77546  23895514.9134   23895508.7184
 124746107.07748  97204748.26746  23738395.1214   23738390.9924
 112575178.21148  87720917.65548  21422338.5734   21422332.3154
 98  1 14 23 58  0.0000000  0  6G 7G 2G26G15G 4G27
 106250406.21849  82792532.71648  20218764.5504   20218757.8314
 112260592.63448  87475787.03448  21362472.6934   21362465.9694
 119310519.06848  92969235.46847  22704035.6994   22704029.7534
 125616991.95647  97883353.64746  23904111.9744   23904105.8484
 124644490.18648  97125566.41246  23719058.1884   23719053.8374
 112652775.97748  87781383.44648  21437104.9374   21437098.6494
 98  1 14 23 58 30.0000000  0  6G 7G 2G26G15G 4G27
 106256650.44649  82797398.35248  20219952.7524   20219946.0244
 112277265.22849  87488778.68648  21365645.3704   21365638.6634
 119323083.51348  92979025.96047  22706426.6934   22706420.6764
 125662410.01446  97918744.33846  23912754.7084   23912748.5854
 124542630.39648  97046195.24146  23699674.9744   23699670.4034
 112730510.43048  87841955.73048  21451897.2764   21451891.0194
 98  1 14 23 59  0.0000000  0  6G 7G 2G26G15G 4G27
 106263491.23048  82802728.84948  20221254.4504   20221247.7704
 112294230.74449  87501998.59148  21368873.7414   21368867.0984
 119336303.01748  92989326.89047  22708942.3884   22708936.2384
 125708524.39647  97954677.63146  23921529.9114   23921523.8174
 124440985.96648  96966991.88647  23680332.6594   23680327.9834
 112808833.27348  87902986.51248  21466801.6894   21466795.3594
 98  1 14 23 59 30.0000000  0  7G 7G 2G26G15G 4G 9G27
 106270765.54649  82808397.16448  20222638.6954   20222632.0464
 112311333.67949  87515325.55448  21372128.3214   21372121.6644
 119350037.60748  93000029.18047  22711556.0654   22711549.8164
 125755175.81946  97991029.40346  23930407.2874   23930401.2604
 124339392.58647  96887828.28546  23660999.9984   23660995.3464
 127260758.39756  99164215.02456  24216916.7264   24216914.1614
 112887563.96049  87964335.07448  21481783.7954   21481777.3354
 98  1 15  0  0  0.0000000  0  7G 7G 2G26G15G 4G 9G27
 106278627.62049  82814523.47148  20224134.8334   20224128.1684
 112328751.34149  87528897.76148  21375442.8284   21375436.1664
 119364444.21148  93011255.15047  22714297.5034   22714291.2824
 125802514.44647  98027916.66646  23939415.4804   23939409.4154
 124238004.84048  96808824.97247  23641706.4444   23641701.8544
 127162875.42346  99087942.63646  24198290.3464   24198287.7114
 112966832.31548  88026102.61148  21496868.2054   21496861.6454
 98  1 15  0  0 30.0000000  0  7G 7G 2G26G15G 4G 9G27
 106286606.16249  82820740.54748  20225653.0994   20225646.4574
 112346037.23049  87542367.29548  21378732.3304   21378725.5794
 119379063.33048  93022646.69647  22717079.3584   22717073.1994
 125850079.62847  98064980.44946  23948466.8334   23948460.7084
 124136376.17347  96729633.86746  23622367.1054   23622362.4864
 127064763.40347  99011491.75546  24179620.5834   24179617.5634
 113046177.41148  88087929.92148  21511967.1574   21511960.5364
 98  1 15  0  1  0.0000000  0  7G 7G 2G26G15G 4G 9G27
 106295167.32848  82827411.59948  20227282.1994   20227275.6114
 112363654.19049  87556094.80848  21382084.8094   21382078.0084
 119394377.22148  93034579.61847  22719993.5424   22719987.3254
 125898339.40947  98102585.48646  23957650.3414   23957644.1964
 124034975.98548  96650620.80946  23603071.3504   23603066.5374
 126966885.41046  98935223.21046  24160995.3774   24160991.8074
 113126069.32948  88150183.34748  21527170.1674   21527163.5044
 98  1 15  0  1 30.0000000  0  7G 7G 2G26G15G 4G 9G27
 106304015.33248  82834306.14748  20228965.8234   20228959.3454
 112381297.26749  87569842.65648  21385442.2234   21385435.4044
 119410067.00848  93046805.41047  22722979.2214   22722972.9734
 125946980.52947  98140487.63446  23966906.4264   23966900.2274
 123933499.57648  96571548.41847  23583761.1264   23583756.0844
 126868935.57846  98858898.72846  24142356.2864   24142352.4214
 113206214.70048  88212634.25948  21542421.3724   21542414.6704
 98  1 15  0  2  0.0000000  0  7G 7G 2G26G15G 4G 9G27
 106313461.12849  82841666.51748  20230763.2394   20230756.8534
 112399258.75249  87583838.64348  21388860.1684   21388853.3974
 119426415.28947  93059544.28647  22726090.1364   22726083.9524
 125996299.29347  98178917.87546  23976291.5114   23976285.2234
 123832251.36847  96492653.80546  23564494.3044   23564489.0314
 126771195.06947  98782737.31846  24123756.8144   24123752.9814
 113286920.80548  88275522.13248  21557779.3284   21557772.5004
 98  1 15  0  2 30.0000000  0  7G 7G 2G26G15G 4G 9G27
 106323337.31549  82849362.27548  20232642.6274   20232636.2514
 112417350.92648  87597936.46648  21392303.0184   21392296.2454
 119443267.53647  93072675.90847  22729296.8934   22729290.9044
 126046138.39246  98217753.47446  23985775.5284   23985769.2434
 123731072.54247  96413813.26647  23545240.6144   23545235.2284
 126673520.09646  98706627.03346  24105169.7664   24105166.0274
 113368039.74248  88338731.67848  21573215.8444   21573208.9014
 98  1 15  0  3  0.0000000  0  7G 7G 2G26G15G 4G 9G27
 106333482.78649  82857267.83748  20234573.2704   20234566.8704
 112435420.61549  87612016.71948  21395741.5654   21395734.7864
 119460450.84847  93086065.49947  22732566.6854   22732560.7944
 126096337.59347  98256869.76546  23995328.1304   23995321.8104
 123629796.55248  96334896.99146  23525968.4344   23525962.9614
 126575775.36547  98630462.37246  24086569.5984   24086565.8084
 113449402.34848  88402131.08748  21588698.6924   21588691.6694
 98  1 15  0  3 30.0000000  0  7G 7G 2G26G15G 4G 9G27
 106344054.43449  82865505.50048  20236584.9404   20236578.5464
 112453636.69449  87626211.08348  21399207.9584   21399201.1954
 119478109.13648  93099825.19947  22735926.9704   22735921.0234
 126147052.96347  98296388.27846  24004979.0164   24004972.5734
 123528580.29048  96256027.24746  23506707.6314   23506702.0124
 126478127.02846  98554372.82846  24067987.7614   24067983.9494
 113531151.76348  88465831.90348  21604255.1124   21604248.0754
 98  1 15  0  4  0.0000000  0  7G 7G 2G26G15G 4G 9G27
 106355341.50349  82874300.62848  20238732.7744   20238726.3454
 112472294.70649  87640749.80048  21402758.4244   21402751.6834
 119496555.15848  93114198.71147  22739437.2384   22739431.1364
 126198589.09447  98336546.33746  24014786.1114   24014779.5364
 123427727.02648  96177440.34947  23487515.8824   23487510.1664
 126380887.58747  98478601.93846  24049483.8064   24049479.9094
 113613572.52348  88530055.87048  21619939.2504   21619932.2394
 98  1 15  0  4 30.0000000  0  7G 7G 2G26G15G 4G 9G27
 106366722.29749  82883168.80848  20240898.4794   20240891.9994
 112490801.18249  87655170.42948  21406280.1014   21406273.3334
 119515176.42148  93128708.80547  22742980.8424   22742974.5574
 126250332.83047  98376866.13246  24024632.6874   24024625.9654
 123326615.45747  96098652.20246  23468274.9664   23468269.1744
 126283464.07446  98402687.64346  24030944.6684   24030940.8624
 113696049.80448  88594323.84948  21635634.1194   21635627.1664
 98  1 15  0  5  0.0000000  0  7G 7G 2G26G15G 4G 9G27
 106378515.99148  82892358.70848  20243142.7094   20243136.2364
 112509475.52749  87669721.88048  21409833.7354   21409826.9304
 119534268.96047  93143586.13447  22746613.9484   22746607.6624
 126302588.81347  98417585.07646  24034576.6474   24034569.8564
 123225558.05347  96019906.23346  23449044.2394   23449038.4674
 126186153.06147  98326860.98646  24012426.9864   24012423.1724
 113778891.77348  88658875.98948  21651398.4454   21651391.5034
 98  1 15  0  5 30.0000000  0  7G 7G 2G26G15G 4G 9G27
 106391039.71749  82902117.46748  20245525.8704   20245519.4554
 112528613.65849  87684634.68748  21413475.6124   21413468.7594
 119554144.16947  93159073.31547  22750396.0394   22750389.7134
 126355665.61247  98458943.62646  24044676.8614   24044669.9904
 123124881.73647  95941457.23947  23429885.9704   23429880.3454
 126089257.43846  98251358.01646  23993988.3504   23993984.5154
 113862427.10248  88723968.44048  21667294.6904   21667287.7914
 98  1 15  0  6  0.0000000  0  7G 7G 2G26G15G 4G 9G27
 106403837.33949  82912089.65648  20247961.1534   20247954.7814
 112547753.27949  87699548.69348  21417117.7724   21417110.8814
 119574340.58647  93174810.81847  22754239.3014   22754232.9114
 126409098.52647  98500579.67146  24054844.8664   24054837.9224
 123024140.14547  95862957.37747  23410715.1624   23410709.8014
 125992307.31747  98175812.61946  23975539.3324   23975535.4814
 113946209.59748  88789253.50148  21683237.8854   21683231.1154
 98  1 15  0  6 30.0000000  0  7G 7G 2G26G15G 4G 9G27
 106416910.04349  82922276.20048  20250448.8544   20250442.4544
 112566904.19249  87714471.49848  21420762.0944   21420755.1374
 119594854.98648  93190796.07447  22758143.0734   22758136.6584
 126462885.31847  98542491.51046  24065080.1764   24065073.2064
 122923349.85747  95784419.56447  23391535.1344   23391530.0034
 125895302.42148  98100224.50347  23957079.9264   23957076.0454
 114030247.61848  88854737.65048  21699229.7414   21699223.0594
 98  1 15  0  7  0.0000000  0  7G 7G 2G26G15G 4G 9G27
 106430577.32748  82932926.04248  20253049.6754   20253043.2394
 112586357.10649  87729629.61648  21424463.9084   21424456.8594
 119616012.83348  93207282.70947  22762169.2064   22762162.8634
 126517338.12447  98584922.25746  24075442.2844   24075435.2134
 122822848.03247  95706106.53847  23372410.0594   23372405.0864
 125798557.70548  98024839.10347  23938670.1614   23938666.1004
 114114858.77148  88920668.41848  21715330.6374   21715324.0724
 98  1 15  0  7 30.0000000  0  7G 7G 2G26G15G 4G 9G27
 106444822.65149  82944026.29948  20255760.4344   20255754.0204
 112606111.61549  87745022.77148  21428223.0664   21428215.9784
 119637817.56848  93224273.40747  22766318.4974   22766312.1504
 126572447.88546  98627864.89946  24085929.4304   24085922.2604
 122722637.68847  95628020.64547  23353340.4154   23353335.6834
 125702065.91548  97949650.74647  23920308.5514   23920304.2594
 114200025.64248  88987032.17348  21731537.2944   21731530.8404
 98  1 15  0  8  0.0000000  0  6G 7G 2G26G 4G 9G27
 106459015.30249  82955085.51248  20258461.2064   20258454.7784
 112625557.56349  87760175.44948  21431923.5544   21431916.3874
 119659661.89648  93241294.96547  22770475.3944   22770468.9884
 122622088.25847  95549670.49647  23334206.3514   23334201.7614
 125605207.66648  97874176.85147  23901877.2054   23901872.6564
 114285116.22848  89053336.51748  21747729.4704   21747723.0994
 98  1 15  0  8 30.0000000  0  6G 7G 2G26G 4G 9G27
 106473596.68349  82966447.64148  20261235.9394   20261229.4804
 112645139.97849  87775434.49148  21435649.9644   21435642.7704
 119682015.16648  93258713.06247  22774729.1164   22774722.7114
 122521650.17747  95471407.15047  23315093.5374   23315088.9924
 125508447.70247  97798779.54847  23883464.4084   23883459.7584
 114370574.32448  89119927.23848  21763991.5704   21763985.2794
 98  1 15  0  9  0.0000000  0  6G 7G 2G26G 4G 9G27
 106488868.94949  82978348.12348  20264142.1784   20264135.6694
 112665156.52949  87791031.79248  21439459.0234   21439451.7904
 119705175.56548  93276760.15847  22779136.3694   22779130.0424
 122421624.84947  95393465.38747  23296059.3854   23296054.7874
 125412080.33447  97723688.17647  23865126.2844   23865121.6014
 114456698.41848  89187036.90548  21780380.4284   21780374.1604
 98  1 15  0  9 30.0000000  0  6G 7G 2G26G 4G 9G27
 106504664.36349  82990656.24848  20267147.9814   20267141.3924
 112685461.82649  87806854.10848  21443322.9334   21443315.7464
 119728963.58047  93295296.28846  22783662.9474   22783656.7854
 122321846.04447  95315715.77647  23277072.0984   23277067.4774
 125315938.70447  97648772.70147  23846831.1164   23846826.4014
 114543327.76648  89254540.25848  21796865.5764   21796859.1834
 98  1 15  0 10  0.0000000  0  6G 7G 2G26G 4G 9G27
 106520526.05049  83003016.00348  20270166.3364   20270159.7564
 112705586.15449  87822535.40248  21447152.4184   21447145.2934
 119752901.53447  93313949.28646  22788218.1054   22788212.0224
 122221845.88647  95237793.67447  23258042.7014   23258038.0584
 125219578.38947  97573686.88146  23828494.1684   23828489.5554
 114629998.87248  89322076.17648  21813358.6934   21813352.1294
 98  1 15  0 10 30.0000000  0  6G 7G 2G26G 4G 9G27
 106536932.24849  83015800.06448  20273288.2964   20273281.7394
 112726006.38149  87838447.27048  21451038.2344   21451031.1494
 119777441.60348  93333071.46847  22792887.8424   22792881.8394
 122122100.13548  95160069.85047  23239061.7994   23239057.0454
 125123470.64547  97498797.84746  23810205.2824   23810200.7664
 114717180.41448  89390009.85248  21829948.8254   21829942.2114
 98  1 15  0 11  0.0000000  0  6G 7G 2G26G 4G 9G27
 106554057.57549  83029144.48848  20276547.1494   20276540.5534
 112746904.20649  87854731.28048  21455014.9584   21455007.9324
 119802721.90048  93352770.37047  22797698.5464   22797692.5434
 122022772.86048  95082672.09147  23220160.6254   23220155.6614
 125027789.55647  97424241.24746  23791997.7054   23791993.1454
 114805040.40648  89458472.19348  21846668.0134   21846661.4454
 98  1 15  0 11 30.0000000  0  6G 7G 2G26G 4G 9G27
 106571286.75049  83042569.82048  20279825.7644   20279819.1104
 112767673.62149  87870915.26048  21458967.2344   21458960.2864
 119828125.37147  93372565.25447  22802532.6184   22802526.7174
 121923248.11048  95005120.41347  23201221.9214   23201216.6734
 124931928.19047  97349544.12746  23773755.9414   23773751.1934
 114892959.57548  89526980.61348  21863398.5584   21863391.9464
 98  1 15  0 12  0.0000000  0  6G 7G 2G26G 4G 9G27
 106588942.24449  83056327.33648  20283185.5294   20283178.7904
 112788634.93049  87887248.76448  21462956.0394   21462949.1564
 119853992.44748  93392721.43847  22807454.9004   22807449.1244
 121823856.37848  94927672.39047  23182308.4224   23182303.0284
 124836220.60747  97274966.85046  23755543.5004   23755538.4624
 114981258.51648  89595784.95748  21880201.5024   21880194.7624
 98  1 15  0 12 30.0000000  0  6G 7G 2G26G 4G 9G27
 106607011.81149  83070407.55648  20286624.0654   20286617.2634
 112809780.98549  87903726.18748  21466980.0474   21466973.1574
 119880323.90148  93413239.42547  22812465.6334   22812459.9024
 121724594.57148  94850325.58247  23163419.5174   23163414.0874
 124740658.07947  97200502.58646  23737358.7114   23737353.3904
 115069933.13248  89664882.02248  21897075.9474   21897069.0624
 98  1 15  0 13  0.0000000  0  6G 7G 2G26G 4G 9G27
 106625476.91649  83084795.94848  20290137.8934   20290130.9944
 112831081.52349  87920323.98948  21471033.4874   21471026.5404
 119907118.24548  93434118.11948  22817564.5704   22817558.7534
 121625456.68048  94773075.35147  23144554.0964   23144548.6854
 124645233.15547  97126145.52846  23719199.9874   23719194.4854
 115158971.33048  89734262.43448  21914019.4354   21914012.5134
 98  1 15  0 13 30.0000000  0  6G 7G 2G26G 4G 9G27
 106644345.35649  83099498.65248  20293728.3794   20293721.4684
 112852537.44649  87937042.90648  21475116.4144   21475109.5164
 119934413.97148  93455387.50448  22822758.9044   22822753.0154
 121526461.19048  94695936.06347  23125715.6434   23125710.3764
 124549949.92247  97051898.90247  23701068.1074   23701062.5634
 115248387.92548  89803937.70848  21931034.8364   21931027.9424
 98  1 15  0 14  0.0000000  0  6G 7G 2G26G 4G 9G27
 106663580.09049  83114486.76048  20297388.5794   20297381.6414
 112874112.37749  87953854.51548  21479221.9754   21479215.1134
 119962185.71048  93477027.80848  22828043.8104   22828037.8604
 121427576.20148  94618882.87147  23106898.2894   23106893.0924
 124454790.69848  96977748.93447  23682959.8504   23682954.2924
 115338150.98848  89873882.94848  21948116.2034   21948109.2384
 98  1 15  0 14 30.0000000  0  6G 7G 2G26G 4G 9G27
 106683199.38449  83129774.53548  20301121.9954   20301115.0574
 112895829.22049  87970776.75048  21483354.5534   21483347.7114
 119990437.92148  93499042.50347  22833420.0744   22833414.1344
 121328814.35048  94541925.65847  23088104.3674   23088099.2034
 124359764.69747  96903702.77047  23664876.9204   23664871.3864
 115428265.67648  89944102.14448  21965264.4224   21965257.4834
 98  1 15  0 15  0.0000000  0  6G 7G 2G26G 4G 9G27
 106703082.10349  83145267.58648  20304905.5504   20304898.6184
 112917576.25049  87987722.48748  21487492.8514   21487486.0484
 120019041.19348  93521330.76647  22838863.1324   22838857.2174
 121230060.58148  94464974.71347  23069312.0424   23069306.7824
 124264743.18048  96829660.09147  23646794.7954   23646789.3164
 115518605.16448  90014496.52948  21982455.3724   21982448.5114
 98  1 15  0 15 30.0000000  0  6G 7G 2G26G 4G 9G27
 106723666.38449  83161307.29448  20308822.5854   20308815.6934
 112939810.16749  88005047.62648  21491723.7534   21491717.0404
 120048420.76848  93544223.94547  22844453.9384   22844448.0114
 121131759.13448  94388376.23747  23050605.7924   23050600.4694
 124170183.27048  96755977.08447  23628800.6554   23628795.0974
 115609596.02848  90085398.51748  21999770.3224   21999763.5164
 98  1 15  0 16  0.0000000  0  6G 7G 2G26G 4G 9G27
 106744491.98049  83177535.05948  20312785.5524   20312778.6794
 112962083.68549  88022403.62548  21495962.1914   21495955.5374
 120078093.47048  93567345.56347  22850100.5014   22850094.5614
 121033460.69948  94311780.06547  23031900.1034   23031894.7494
 124075635.28047  96682303.38247  23610808.7354   23610803.1354
 115700761.94348  90156436.87548  22017118.6424   22017111.8394
 98  1 15  0 16 30.0000000  0  6G 7G 2G26G 4G 9G27
 106765574.10349  83193962.69148  20316797.3714   20316790.4294
 112984395.39049  88039789.37648  21500207.9204   21500201.2694
 120108058.57748  93590695.01847  22855802.7434   22855796.7064
 120935181.00048  94235198.52447  23013197.9914   23013192.6174
 123981096.64947  96608636.97047  23592818.5604   23592812.9684
 115792106.29248  90227614.26448  22034500.9414   22034494.1304
 98  1 15  0 17  0.0000000  0  6G 7G 2G26G 4G 9G27
 106787216.78149  83210827.13648  20320915.8714   20320908.8534
 113007039.41849  88057434.08448  21504516.9244   21504510.2254
 120138621.73848  93614510.42247  22861618.7914   22861612.6104
 120837231.49147  94158874.25947  22994558.7714   22994553.3304
 123886881.36747  96535222.55247  23574889.8934   23574884.3874
 115883943.18948  90299175.44448  22051976.9464   22051970.1314
 98  1 15  0 17 30.0000000  0  6G 7G 2G26G 4G 9G27
 106809424.27349  83228131.70748  20325141.7814   20325134.7604
 113030016.78449  88075338.50348  21508889.3474   21508882.6064
 120169792.49048  93638799.30347  22867550.4354   22867544.1114
 120739620.17247  94082813.53447  22975983.9084   22975978.4174
 123792994.81148  96462064.25047  23557023.8524   23557018.3374
 115976279.01248  90371125.41047  22069547.8814   22069541.1094
 98  1 15  0 18  0.0000000  0  6G 7G 2G26G 4G 9G27
 106831881.94749  83245631.17748  20329415.3344   20329408.2794
 113053014.17649  88093258.55948  21513265.5824   21513258.8214
 120201266.24548  93663324.33047  22873539.7154   22873533.2814
 120642029.33247  94006768.75047  22957412.8934   22957407.4284
 123699100.25848  96388899.73347  23539156.3364   23539150.7994
 116068823.63248  90443238.08947  22087158.5004   22087151.7774
 98  1 15  0 18 30.0000000  0  6G 7G 2G26G 4G 9G27
 106854729.31449  83263434.31848  20333763.0674   20333756.0034
 113076178.41849  88111308.63048  21517673.5434   21517666.8034
 120233201.10848  93688208.64447  22879616.7294   22879610.2244
 120544597.89348  93930848.18047  22938872.1524   22938866.8034
 123605340.14648  96315839.94047  23521314.3924   23521308.8064
 116161740.50848  90515640.84648  22104840.0774   22104833.2554
 98  1 15  0 19  0.0000000  0  6G 7G 2G26G 4G 9G27
 106877939.45949  83281520.13948  20338179.8114   20338172.7764
 113099528.52049  88129503.51248  21522116.8964   21522110.1634
 120265586.96548  93713444.39147  22885779.5174   22885772.9904
 120447326.47147  93855052.28047  22920361.8264   22920356.6704
 123511717.26147  96242887.12947  23503498.4784   23503492.9394
 116255025.27848  90588330.27748  22122591.6144   22122584.7564
 98  1 15  0 19 30.0000000  0  6G 7G 2G26G 4G 9G27
 106901486.54549  83299868.52148  20342660.6964   20342653.6994
 113123063.24249  88147842.26048  21526595.3694   21526588.6584
 120298411.01748  93739021.60247  22892025.5604   22892019.1614
 120350206.47548  93779374.36547  22901880.2674   22901875.3964
 123418224.94248  96170036.02547  23485707.4574   23485701.8794
 116348666.36648  90661297.34548  22140410.9454   22140404.1204
 98  1 15  0 20  0.0000000  0  6G 7G 2G26G 4G 9G27
 106925222.82949  83318364.31848  20347177.5964   20347170.5924
 113146627.01249  88166203.64548  21531079.4294   21531072.6954
 120331523.34848  93764823.39647  22898326.4974   22898320.1614
 120253098.06747  93703705.45747  22883400.9254   22883396.3524
 123324725.31448  96097179.21147  23467915.0704   23467909.4554
 116442516.13248  90734427.01148  22158269.9144   22158263.1934
 98  1 15  0 20 30.0000000  0  6G 7G 2G26G 4G 9G27
 106949472.43849  83337260.12948  20351792.1554   20351785.1584
 113170519.56249  88184821.21748  21535626.1374   21535619.3124
 120365236.93748  93791093.66947  22904742.0154   22904735.5844
 120156340.64447  93628310.04847  22864988.4104   22864984.0694
 123231553.15948  96024577.56447  23450184.8914   23450179.3304
 116536870.13348  90807949.61047  22176224.8124   22176218.2234
 98  1 15  0 21  0.0000000  0  6G 7G 2G26G 4G 9G27
 106973781.35849  83356202.15948  20356418.0134   20356411.0254
 113194268.38849  88203326.80848  21540145.4124   21540138.5664
 120399088.55848  93817471.56747  22911183.8124   22911177.3674
 120059487.78348  93552840.29747  22846557.8284   22846553.5704
 123138247.76548  95951872.09547  23432429.4174   23432423.8514
 116631259.65148  90881499.86148  22194186.4814   22194179.9764
 98  1 15  0 21 30.0000000  0  6G 7G 2G26G 4G 9G27
 106998633.52349  83375567.50148  20361147.2584   20361140.2704
 113218318.02649  88222066.78948  21544721.9534   21544715.0764
 120433544.03448  93844319.95747  22917740.4834   22917734.1104
 119963000.46948  93477655.40547  22828196.9984   22828192.6214
 123045270.62447  95879422.39647  23414736.3724   23414730.8494
 116726154.71848  90955444.05948  22212244.3994   22212237.9504
 98  1 15  0 22  0.0000000  0  6G 7G 2G26G 4G 9G27
 107024029.37249  83395356.47848  20365979.9404   20365972.9564
 113242647.50749  88241024.85148  21549351.6764   21549344.8444
 120468589.22548  93871627.95347  22924409.3614   22924403.1084
 119866870.86447  93402749.27247  22809904.2134   22809899.7174
 122952612.29347  95807221.13547  23397103.9834   23397098.5174
 116821539.36648  91029769.74948  22230395.5184   22230389.0584
 98  1 15  0 22 30.0000000  0  6G 7G 2G26G 4G 9G27
 107049811.13449  83415446.16548  20370886.0814   20370879.0934
 113267122.07449  88260095.93048  21554009.0794   21554002.2274
 120504074.77248  93899279.04947  22931162.0484   22931155.8644
 119770938.36148  93327996.69847  22791648.8894   22791644.2694
 122860125.48047  95735153.54447  23379504.2094   23379498.8304
 116917246.29148  91104346.55748  22248607.9524   22248601.4924
 98  1 15  0 23  0.0000000  0  6G 7G 2G26G 4G 9G27
 107075969.97249  83435829.67549  20375864.0144   20375856.9854
 113291761.42949  88279295.43748  21558697.8164   21558690.9584
 120539990.39548  93927265.24047  22937996.6714   22937990.4084
 119675189.00047  93253386.89647  22773428.4864   22773423.7014
 122767811.87147  95663220.90747  23361937.4064   23361932.1154
 117013274.81048  91179173.94447  22266881.5484   22266875.1194
 98  1 15  0 23 30.0000000  0  6G 7G 2G26G 4G 9G27
 107102508.48549  83456509.05149  20380914.1854   20380907.1454
 113316567.61249  88298624.91848  21563418.2994   21563411.4304
 120576332.29748  93955583.60247  22944912.5074   22944906.0724
 119579621.85447  93178919.08647  22755242.8064   22755237.8404
 122675678.34948  95591428.62547  23344404.9094   23344399.6764
 117109613.86448  91254243.29247  22285214.2014   22285207.8514
 98  1 15  0 24  0.0000000  0  6G 7G 2G26G 4G 9G27
 107129421.73449  83477480.42549  20386035.6534   20386028.6154
 113341559.73949  88318099.32648  21568174.1314   21568167.2794
 120613102.84248  93984235.96647  22951909.8284   22951903.3034
 119484255.32547  93104607.59447  22737095.2664   22737090.1234
 122583742.53847  95519790.35447  23326910.0824   23326904.8174
 117206246.48448  91329541.40547  22303602.7654   22303596.4204
 98  1 15  0 24 30.0000000  0  6G 7G 2G26G 4G 9G27
 107156692.00149  83498729.99848  20391225.0364   20391218.0244
 113366746.34349  88337725.24048  21572966.9594   21572960.1124
 120650289.05247  94013212.23747  22958986.1524   22958979.6194
 119389091.18147  93030453.82447  22718986.2744   22718980.9394
 122491994.84747  95448298.66847  23309451.0534   23309445.7414
 117303153.89748  91405053.64947  22322043.7644   22322037.2964
 98  1 15  0 25  0.0000000  0  6G 7G 2G26G 4G 9G27
 107184294.75349  83520238.64148  20396477.6534   20396470.6544
 113392096.41849  88357478.56848  21577790.9654   21577784.0774
 120687858.04848  94042486.79547  22966135.2944   22966128.7814
 119294121.62147  92956451.67047  22700914.3344   22700908.7664
 122400417.33247  95376939.61547  23292024.4314   23292019.0704
 117400328.51248  91480774.12047  22340535.4904   22340529.0244
 98  1 15  0 25 30.0000000  0  6G 7G 2G26G 4G 9G27
 107212102.57149  83541907.08048  20401769.2824   20401762.3084
 113417484.34049  88377261.37748  21582622.1504   21582615.2414
 120725694.92248  94071970.07247  22973335.4124   22973328.8834
 119199229.84348  92882510.16847  22682857.1484   22682851.4504
 122308889.35748  95305619.16247  23274607.2364   23274601.8264
 117497657.72547  91556615.04547  22359056.5284   22359050.1064
 98  1 15  0 26  0.0000000  0  6G 7G 2G26G 4G 9G27
 107240414.33149  83563968.20348  20407156.8304   20407149.8444
 113443217.98249  88397313.56048  21587519.0994   21587512.1734
 120764097.88148  94101894.42947  22980643.2764   22980636.6714
 119104712.98848  92808860.78047  22664871.3324   22664865.4414
 122217716.30047  95234575.26847  23257257.6404   23257252.1054
 117595450.73947  91632817.40547  22377665.7774   22377659.4704
 98  1 15  0 26 30.0000000  0  6G 7G 2G26G 4G 9G27
 107269235.63849  83586426.38648  20412641.3554   20412634.3474
 113469281.28149  88417622.62548  21592478.7924   21592471.8244
 120803066.23648  94132259.40747  22988058.7314   22988052.0784
 119010567.91548  92735501.08347  22646956.1564   22646950.1474
 122126888.15047  95163800.13447  23239973.6424   23239968.0494
 117693719.58847  91709390.51247  22396365.6234   22396359.3604
 98  1 15  0 27  0.0000000  0  6G 7G 2G26G 4G 9G27
 107298273.76449  83609053.49448  20418167.0914   20418160.1184
 113495362.90949  88437945.97148  21597441.9494   21597434.9624
 120842296.89748  94162828.76947  22995524.1254   22995517.3984
 118916489.35148  92662193.20847  22629053.5534   22629047.4784
 122036101.50448  95093057.31147  23222697.5054   23222691.8994
 117792171.64047  91786106.38547  22415100.4374   22415094.0834
 98  1 15  0 27 30.0000000  0  6G 7G 2G26G 4G 9G27
 107327537.17049  83631856.15748  20423735.6964   20423728.7614
 113521464.10849  88458284.58948  21602408.8064   21602401.8304
 120881792.41748  94193604.48647  23003039.8974   23003033.1574
 118822474.52048  92588934.99447  22611163.1854   22611156.9674
 121945344.59148  95022337.71647  23205427.0394   23205421.3754
 117890804.65647  91862963.27147  22433869.7474   22433863.2584
 98  1 15  0 28  0.0000000  0  6G 7G 2G26G 4G 9G27
 107357477.41549  83655186.22249  20429433.0644   20429426.1704
 113548038.02949  88478991.49448  21607465.6434   21607458.6374
 120921998.41348  94224933.84847  23010690.8434   23010684.0774
 118728989.33548  92516089.49147  22593373.5574   22593367.2144
 121855070.02647  94951993.92347  23188248.2534   23188242.6114
 117990058.10447  91940303.60747  22452757.0274   22452750.5584
 98  1 15  0 28 30.0000000  0  6G 7G 2G26G 4G 9G27
 107387620.34649  83678674.21948  20435169.0494   20435162.1644
 113574632.69949  88499714.67048  21612526.3694   21612519.4334
 120962448.99748  94256453.82247  23018388.2864   23018381.5314
 118635588.13848  92443309.40447  22575599.8654   22575593.4364
 121764807.62647  94881659.67547  23171071.7234   23171066.2234
 118089460.32347  92017759.88447  22471672.5454   22471666.1724
 98  1 15  0 29  0.0000000  0  6G 7G 2G26G 4G 9G27
 107418260.59449  83702549.75549  20440999.7064   20440992.7984
 113601575.48649  88520709.04648  21617653.3874   21617646.4744
 121003454.99747  94288406.55647  23026191.3374   23026184.6544
 118542574.42848  92370831.26747  22557899.8494   22557893.3974
 121674873.60447  94811581.23047  23153957.6934   23153952.2904
 118189319.57447  92095572.24847  22490674.9974   22490668.7464
 98  1 15  0 29 30.0000000  0  6G 7G 2G26G 4G 9G27
 107449226.71149  83726679.21548  20446892.3744   20446885.4594
 113628691.27248  88541838.25648  21622813.2674   21622806.4124
 121044855.81247  94320666.92747  23034069.5794   23034062.9204
 118449780.64848  92298524.49847  22540241.6254   22540235.1934
 121585117.82048  94741641.72347  23136877.7124   23136872.2564
 118289459.05047  92173602.97947  22509730.7044   22509724.6334
 98  1 15  0 30  0.0000000  0  6G 7G 2G26G 4G 9G27
 107480514.17449  83751059.06248  20452846.2284   20452839.2664
 113655989.40849  88563109.50948  21628007.8464   21628001.0394
 121086663.50048  94353244.29947  23042025.3534   23042018.6164
 118357219.50548  92226399.03047  22522627.6114   22522621.3104
 121495560.66147  94671856.96347  23119835.6234   23119830.0444
 118389873.95248  92251848.35847  22528838.9654   22528832.9844
 98  1 15  0 30 30.0000000  0  6G 7G 2G26G 4G 9G27
 107512134.58549  83775698.36048  20458863.3924   20458856.4504
 113683475.34849  88584527.13848  21633238.1634   21633231.3974
 121128894.09248  94386151.27247  23050061.6514   23050054.8204
 118264886.90648  92154451.63447  22505057.1594   22505050.8994
 121406224.12147  94602244.13847  23102835.4204   23102829.8204
 118490577.57848  92330318.75747  22548002.2874   22547996.2874
 98  1 15  0 31  0.0000000  0  6G 7G 2G26G 4G 9G27
 107544093.84249  83800601.68348  20464945.0134   20464938.1264
 113711129.95749  88606076.17748  21638500.6014   21638493.8624
 121171547.16948  94419387.44647  23058178.2384   23058171.4334
 118172777.21648  92082677.92448  22487529.2564   22487522.9194
 121317126.84447  94532817.73547  23085880.7014   23085875.0924
 118591573.11147  92409016.49147  22567221.1224   22567215.0784
 98  1 15  0 31 30.0000000  0  6G 7G 2G26G 4G 9G27
 107576409.20249  83825782.48549  20471094.4094   20471087.5514
 113738954.32149  88627757.52148  21643795.3424   21643788.6374
 121214616.65648  94452948.12847  23066374.1254   23066367.3104
 118080914.97748  92011097.04047  22470048.4294   22470041.9684
 121228281.15147  94463587.37547  23068973.8924   23068968.2554
 118692864.75847  92487945.00947  22586496.2824   22586490.2434
 98  1 15  0 32  0.0000000  0  6G 7G 2G26G 4G 9G27
 107608912.93449  83851110.07848  20477279.6644   20477272.8074
 113766814.61549  88649466.85048  21649096.9444   21649090.2314
 121257922.69747  94486693.10847  23074615.0024   23074608.1944
 117989151.53248  91939593.15048  22452586.4154   22452579.8354
 121139523.30948  94394425.44547  23052083.8484   23052078.1144
 118794294.54647  92566981.23347  22605797.6934   22605791.6354
 98  1 15  0 32 30.0000000  0  6G 7G 2G26G 4G 9G27
 107641915.07349  83876826.05448  20483559.7384   20483552.8664
 113795016.41549  88671442.27548  21654463.6274   21654456.8094
 121301746.18248  94520841.26447  23082954.2634   23082947.5834
 117897793.39448  91868405.06847  22435201.5154   22435194.7804
 121051162.48647  94325572.84747  23035269.4264   23035263.5304
 118896169.26747  92646364.12547  22625183.7124   22625177.7484
 98  1 15  0 33  0.0000000  0  6G 7G 2G26G 4G 9G27
 107675102.32749  83902686.28148  20489875.0634   20489868.0914
 113823262.96749  88693452.58048  21659838.7564   21659831.9354
 121345767.80248  94555143.82347  23091331.1564   23091324.6644
 117806548.14748  91797304.92448  22417838.0514   22417831.2314
 120962887.55947  94256787.22847  23018471.2184   23018465.3184
 118998186.65048  92725858.18147  22644596.9634   22644590.9934
 98  1 15  0 33 30.0000000  0  6G 7G 2G26G 4G 9G27
 107708472.94049  83928689.36548  20496225.3154   20496218.2024
 113851581.24949  88715518.77248  21665227.6054   21665220.7394
 121389989.26147  94589602.10247  23099746.1964   23099739.7594
 117715424.67848  91726299.70247  22400497.7604   22400490.8474
 120874700.61947  94188070.15247  23001689.6714   23001683.8454
 119100347.54748  92805464.02847  22664037.6664   22664031.6154
 98  1 15  0 34  0.0000000  0  6G 7G 2G26G 4G 9G27
 107742325.82149  83955068.23748  20502667.3404   20502660.1014
 113880273.80649  88737876.60748  21670687.6654   21670680.7514
 121434730.03147  94624465.06447  23108260.1174   23108253.6814
 117624722.07448  91655622.42847  22383237.5094   22383230.5674
 120786910.85547  94119662.61447  22984983.7034   22984977.9644
 119202949.09347  92885413.24647  22683562.1394   22683556.1074
 98  1 15  0 34 30.0000000  0  6G 7G 2G26G 4G 9G27
 107776350.18249  83981580.74548  20509141.9134   20509134.6344
 113909004.09649  88760263.83048  21676154.8574   21676147.9554
 121479692.72047  94659500.91847  23116816.1254   23116809.8404
 117534133.89548  91585034.28947  22365999.0214   22365992.0554
 120699203.05247  94051318.88947  22968293.3094   22968287.6984
 119305672.82147  92965457.68647  22703109.8264   22703103.8074
 98  1 15  0 35  0.0000000  0  6G 7G 2G26G 4G 9G27
 107810536.42949  84008219.39748  20515647.2684   20515639.9744
 113937775.29849  88782682.95048  21681629.8234   21681622.9334
 121524893.87046  94694722.60646  23125417.4044   23125411.3054
 117443669.62948  91514542.73447  22348784.0774   22348777.1604
 120611571.52948  93983034.58747  22951617.5374   22951611.8984
 119408518.13548  93045596.85747  22722680.6634   22722674.6724
 98  1 15  0 35 30.0000000  0  6G 7G 2G26G 4G 9G27
 107845359.79349  84035354.48648  20522273.8744   20522266.5634
 113967044.05149  88805489.77348  21687199.4934   21687192.5774
 121570814.21947  94730504.68447  23134155.5064   23134149.6394
 117353801.57848  91444515.74547  22331682.6724   22331675.7624
 120524482.81147  93915173.25547  22935045.1404   22935039.3914
 119511935.69047  93126181.96647  22742360.4054   22742354.4254
 98  1 15  0 36  0.0000000  0  6G 7G 2G26G 4G 9G27
 107880359.31249  84062626.84048  20528934.0024   20528926.6744
 113996335.04949  88828313.94148  21692773.3974   21692766.4724
 121616995.07347  94766489.74647  23142943.4064   23142937.5744
 117264084.30748  91374606.22448  22314609.9244   22314603.0524
 120437463.37647  93847365.92947  22918485.8334   22918480.0584
 119615470.02347  93206858.02447  22762062.2744   22762056.4194
 98  1 15  0 36 30.0000000  0  6G 7G 2G26G 4G 9G27
 107915838.35649  84090272.85448  20535685.3804   20535678.0524
 114025951.81249  88851391.94748  21698409.2564   21698402.3414
 121663726.28148  94802903.64647  23151836.1314   23151830.2204
 117174830.99648  91305058.23247  22297625.3464   22297618.6304
 120350811.51848  93779845.01447  22901996.4854   22901990.6544
 119719426.86148  93287863.32347  22781844.5434   22781838.8014
 98  1 15  0 37  0.0000000  0  6G 7G 2G26G 4G 9G27
 107951645.98649  84118174.90948  20542499.3104   20542491.9584
 114055756.82449  88874616.60648  21704081.0324   21704073.9944
 121710859.01548  94839630.45347  23160805.3594   23160799.2974
 117085880.72748  91235746.40347  22280698.4234   22280691.9134
 120264387.91347  93712501.96447  22885550.6324   22885544.7024
 119823655.02547  93369080.08547  22801678.4914   22801672.8094
 98  1 15  0 37 30.0000000  0  6G 7G 2G26G 4G 9G27
 107988094.31249  84146576.20648  20549435.1604   20549427.8144
 114086052.84649  88898223.92648  21709846.2094   21709839.1124
 121758693.87948  94876904.37547  23169908.1854   23169901.9844
 116997543.70348  91166912.38748  22263888.2804   22263881.8824
 120178505.38647  93645580.54747  22869207.6954   22869201.7784
 119928456.96948  93450743.89847  22821621.5664   22821615.9624
 98  1 15  0 38  0.0000000  0  6G 7G 2G26G 4G 9G27
 108024564.01749  84174994.16248  20556375.1264   20556367.7694
 114116232.17649  88921740.26948  21715589.2164   21715581.9984
 121806599.13647  94914233.16947  23179024.2414   23179018.0424
 116909202.87448  91098075.40548  22247077.5194   22247071.1114
 120092560.97448  93578610.90647  22852853.1364   22852847.0624
 120033226.87748  93532382.75747  22841558.5934   22841553.0514
 98  1 15  0 38 30.0000000  0  6G 7G 2G26G 4G 9G27
 108061505.85949  84203780.00548  20563404.8894   20563397.5664
 114146760.55349  88945528.59448  21721398.6444   21721391.3194
 121855020.13747  94951963.85647  23188238.3564   23188232.2464
 116821300.18348  91029579.86948  22230350.1824   22230343.7564
 120007043.30347  93511973.82247  22836579.7714   22836573.5754
 120138417.65347  93614349.58047  22861575.7564   22861570.1864
 98  1 15  0 39  0.0000000  0  6G 7G 2G26G 4G 9G27
 108098606.16149  84232689.32948  20570464.7824   20570457.5644
 114177337.23749  88969354.59448  21727217.2414   21727209.8264
 121903648.82948  94989856.32147  23197492.2074   23197485.9884
 116733523.92448  90961182.82247  22213646.9744   22213640.4384
 119921651.19648  93445434.55547  22820330.2054   22820323.9914
 120243718.02147  93696401.80347  22881613.6794   22881608.1474
 98  1 15  0 39 30.0000000  0  6G 7G 2G26G 4G 9G27
 108135707.65549  84261599.58548  20577524.9744   20577517.7754
 114207811.08748  88993100.42848  21733016.1754   21733008.7404
 121952313.99948  95027777.22447  23206753.0594   23206746.6294
 116645737.18248  90892777.60747  22196941.7014   22196935.0944
 119836220.03648  93378864.85847  22804073.2204   22804066.9454
 120348980.34647  93778424.35547  22901644.2664   22901638.8764
 98  1 15  0 40  0.0000000  0  6G 7G 2G26G 4G 9G27
 108173565.10449  84291098.91148  20584729.0664   20584721.8424
 114238954.68948  89017368.16548  21738942.5344   21738935.1084
 122001766.87948  95066311.90147  23216163.8434   23216157.1304
 116558700.23848  90824956.67047  22180379.0624   22180372.4374
 119751523.69947  93312867.74447  22787956.0794   22787949.7614
 120454971.44947  93861014.84347  22921813.6074   22921808.2414
 98  1 15  0 40 30.0000000  0  6G 7G 2G26G 4G 9G27
 108211417.37549  84320594.18148  20591932.1264   20591924.9034
 114270004.50248  89041562.81248  21744851.0814   21744843.6124
 122051249.04448  95104869.40547  23225580.1774   23225573.1904
 116471654.44548  90757128.80848  22163814.7984   22163808.1344
 119666789.14748  93246840.84447  22771831.7014   22771825.2724
 120560915.40947  93943568.54347  22941973.9904   22941968.6674
 98  1 15  0 41  0.0000000  0  6G 7G 2G26G 4G 9G27
 108249580.05049  84350331.33748  20599194.2414   20599187.0364
 114301262.35148  89065919.57448  21750799.2404   21750791.7214
 122101080.79448  95143699.32347  23235062.9394   23235055.7614
 116384923.80848  90689546.51748  22147310.5184   22147303.8344
 119582305.21348  93181009.21047  22755754.9434   22755748.4694
 120667110.46047  94026317.89947  22962182.1884   22962176.9204
 98  1 15  0 41 30.0000000  0  6G 7G 2G26G 4G 9G27
 108288036.57149  84380297.47448  20606512.2744   20606505.0884
 114332703.78149  89090419.38648  21756782.3214   21756774.7494
 122151235.07847  95182780.58247  23244606.9704   23244599.7274
 116298496.79048  90622200.81248  22130863.9684   22130857.3244
 119498064.75348  93115367.34947  22739724.5524   22739718.0564
 120773533.69347  94109245.02246  22982433.7734   22982428.6014
 98  1 15  0 42  0.0000000  0  6G 7G 2G26G 4G 9G27
 108326642.14649  84410379.73348  20613858.7064   20613851.4984
 114364163.00648  89114933.07548  21762768.8014   21762761.1964
 122201570.45547  95222002.99247  23254185.3314   23254178.1494
 116212213.60748  90554967.18648  22114444.7174   22114438.2024
 119413932.60648  93049809.87247  22723714.8204   22723708.2354
 120880020.69547  94192221.85147  23002697.5404   23002692.4364
 98  1 15  0 42 30.0000000  0  6G 7G 2G26G 4G 9G27
 108365871.30149  84440947.90148  20621323.8504   20621316.5574
 114396095.42848  89139815.46948  21768845.2914   21768837.6854
 122252570.09948  95261742.97247  23263890.1334   23263882.9974
 116126547.27448  90488214.21348  22098142.8494   22098136.4294
 119330363.67948  92984691.25047  22707812.2174   22707805.6024
 120987037.22247  94275611.34447  23023062.3224   23023057.0324
 98  1 15  0 43  0.0000000  0  6G 7G 2G26G 4G 9G27
 108405561.10649  84471875.02648  20628876.5804   20628869.2464
 114428350.09749  89164948.97948  21774983.1034   21774975.4994
 122304075.09548  95301876.75347  23273691.2444   23273684.0604
 116041358.92448  90421833.72548  22081931.9864   22081925.6514
 119247212.04848  92919897.78047  22691988.9524   22691982.3294
 121094440.04648  94359301.82347  23043500.6144   23043495.1484
 98  1 15  0 43 30.0000000  0  6G 7G 2G26G 4G 9G27
 108445553.83349  84503038.19748  20636486.9434   20636479.5804
 114460789.48348  89190226.40648  21781156.1254   21781148.4754
 122355925.66247  95342279.78847  23283558.1624   23283550.8794
 115956502.70348  90355712.04248  22065784.3244   22065778.0604
 119164329.70347  92855314.17747  22676216.7654   22676210.2784
 121202085.64347  94443181.44647  23063984.9974   23063979.5154
 98  1 15  0 44  0.0000000  0  6G 7G 2G26G 4G 9G27
 108485681.89949  84534306.82348  20644123.1084   20644115.6674
 114493259.67848  89215527.86948  21787334.9984   21787327.3204
 122407966.38248  95382830.95747  23293461.1934   23293453.9044
 115871813.49448  90289720.48048  22049668.4324   22049662.2164
 119081541.14747  92790803.66247  22660462.4484   22660456.0904
 121309818.68247  94527129.26247  23084485.9844   23084480.5514
